Observation data for Welch on 11/23/2019      Previous  Date       Current Mesonet Observations  Soil Data  Daily Summary Page  Observations in Plain Language
KWE2 230600Z 18006KT 04/04 A3008 RMK A01 T00410041  RH  100%=      5-min Rain = 0
KWE2 230601Z 17005KT 04/04 A3008 RMK A01 T00410041  RH  100%=      5-min Rain = 0
KWE2 230602Z 17004KT 04/04 A3008 RMK A01 T00420042  RH  100%=      5-min Rain = 0
KWE2 230603Z 17005KT 04/04 A3008 RMK A01 T00420042  RH  100%=      5-min Rain = 0
KWE2 230604Z 17005KT 04/04 A3008 RMK A01 T00420042  RH  100%=      5-min Rain = 0
KWE2 230605Z 18006KT 04/04 A3008 RMK A01 T00420042  RH  100%=      5-min Rain = 0
KWE2 230606Z 17005KT 04/04 A3007 RMK A01 T00420042  RH  100%=      5-min Rain = 0
KWE2 230607Z 18004KT 04/04 A3008 RMK A01 T00410041  RH  100%=      5-min Rain = 0
KWE2 230608Z 17005KT 04/04 A3008 RMK A01 T00410042  RH  100%=      5-min Rain = 0
KWE2 230609Z 17005KT 04/04 A3008 RMK A01 T00410041  RH  100%=      5-min Rain = 0
KWE2 230610Z 17005KT 04/04 A3008 RMK A01 T00410041  RH  100%=      5-min Rain = 0
KWE2 230611Z 17005KT 04/04 A3008 RMK A01 T00410041  RH  100%=      5-min Rain = 0
KWE2 230612Z 17004KT 04/04 A3008 RMK A01 T00410041  RH  100%=      5-min Rain = 0
KWE2 230613Z 17004KT 04/04 A3008 RMK A01 T00410041  RH  100%=      5-min Rain = 0
KWE2 230614Z 17004KT 04/04 A3008 RMK A01 T00410041  RH  100%=      5-min Rain = 0
KWE2 230615Z 17004KT 04/04 A3008 RMK A01 T00400040  RH  100%=      5-min Rain = 0
KWE2 230616Z 17004KT 04/04 A3008 RMK A01 T00400040  RH  100%=      5-min Rain = 0
KWE2 230617Z 17004KT 04/04 A3008 RMK A01 T00400040  RH  100%=      5-min Rain = 0
KWE2 230618Z 17005KT 04/04 A3008 RMK A01 T00400040  RH  100%=      5-min Rain = 0
KWE2 230619Z 17004KT 04/04 A3008 RMK A01 T00400040  RH  100%=      5-min Rain = 0
KWE2 230620Z 17005KT 04/04 A3008 RMK A01 T00400040  RH  100%=      5-min Rain = 0
KWE2 230621Z 18005KT 04/04 A3008 RMK A01 T00390039  RH  100%=      5-min Rain = 0
KWE2 230622Z 18005KT 04/04 A3008 RMK A01 T00380038  RH  100%=      5-min Rain = 0
KWE2 230623Z 18005KT 04/04 A3008 RMK A01 T00380038  RH  100%=      5-min Rain = 0
KWE2 230624Z 18005KT 04/04 A3008 RMK A01 T00380038  RH  100%=      5-min Rain = 0
KWE2 230625Z 18004KT 04/04 A3008 RMK A01 T00370037  RH  100%=      5-min Rain = 0
KWE2 230626Z 18005KT 04/04 A3008 RMK A01 T00370037  RH  100%=      5-min Rain = 0
KWE2 230627Z 18005KT 04/04 A3008 RMK A01 T00370037  RH  100%=      5-min Rain = 0
KWE2 230628Z 19004KT 04/04 A3008 RMK A01 T00370037  RH  100%=      5-min Rain = 0
KWE2 230629Z 19004KT 04/04 A3008 RMK A01 T00370037  RH  100%=      5-min Rain = 0
KWE2 230630Z 18004KT 04/04 A3008 RMK A01 T00370037  RH  100%=      5-min Rain = 0
KWE2 230631Z 18004KT 04/04 A3008 RMK A01 T00370037  RH  100%=      5-min Rain = 0
KWE2 230632Z 19005KT 04/04 A3008 RMK A01 T00370037  RH  100%=      5-min Rain = 0
KWE2 230633Z 18005KT 04/04 A3008 RMK A01 T00370037  RH  100%=      5-min Rain = 0
KWE2 230634Z 19006KT 04/04 A3008 RMK A01 T00370037  RH  100%=      5-min Rain = 0
KWE2 230635Z 19006KT 04/04 A3008 RMK A01 T00370037  RH  100%=      5-min Rain = 0
KWE2 230636Z 18005KT 04/04 A3008 RMK A01 T00360036  RH  100%=      5-min Rain = 0
KWE2 230637Z 19005KT 04/04 A3007 RMK A01 T00360037  RH  100%=      5-min Rain = 0
KWE2 230638Z 19005KT 04/04 A3007 RMK A01 T00370037  RH  100%=      5-min Rain = 0
KWE2 230639Z 20005KT 04/04 A3007 RMK A01 T00370037  RH  100%=      5-min Rain = 0
KWE2 230640Z 21004KT 04/04 A3008 RMK A01 T00370037  RH  100%=      5-min Rain = 0
KWE2 230641Z 19005KT 04/04 A3007 RMK A01 T00360036  RH  100%=      5-min Rain = 0
KWE2 230642Z 18005KT 04/04 A3007 RMK A01 T00360036  RH  100%=      5-min Rain = 0
KWE2 230643Z 19005KT 04/04 A3007 RMK A01 T00360036  RH  100%=      5-min Rain = 0
KWE2 230644Z 20004KT 04/04 A3007 RMK A01 T00360036  RH  100%=      5-min Rain = 0
KWE2 230645Z 20004KT 04/04 A3007 RMK A01 T00360036  RH  100%=      5-min Rain = 0
KWE2 230646Z 19005KT 04/04 A3007 RMK A01 T00370037  RH  100%=      5-min Rain = 0
KWE2 230647Z 19005KT 04/04 A3007 RMK A01 T00370037  RH  100%=      5-min Rain = 0
KWE2 230648Z 19006KT 04/04 A3007 RMK A01 T00370037  RH  100%=      5-min Rain = 0
KWE2 230649Z 18007KT 04/04 A3007 RMK A01 T00370037  RH  100%=      5-min Rain = 0
KWE2 230650Z 18006KT 04/04 A3007 RMK A01 T00370037  RH  100%=      5-min Rain = 0
KWE2 230651Z 19006KT 04/04 A3007 RMK A01 T00370037  RH  100%=      5-min Rain = 0
KWE2 230652Z 19006KT 04/04 A3007 RMK A01 T00370037  RH  100%=      5-min Rain = 0
KWE2 230653Z 18006KT 04/04 A3007 RMK A01 T00380038  RH  100%=      5-min Rain = 0
KWE2 230654Z 18006KT 04/04 A3007 RMK A01 T00380038  RH  100%=      5-min Rain = 0
KWE2 230655Z 19006KT 04/04 A3007 RMK A01 T00380038  RH  100%=      5-min Rain = 0
KWE2 230656Z 19006KT 04/04 A3007 RMK A01 T00380038  RH  100%=      5-min Rain = 0
KWE2 230657Z 19006KT 04/04 A3007 RMK A01 T00370037  RH  100%=      5-min Rain = 0
KWE2 230658Z 19006KT 04/04 A3007 RMK A01 T00370037  RH  100%=      5-min Rain = 0
KWE2 230659Z 20006KT 04/04 A3007 RMK A01 T00370037  RH  100%=      5-min Rain = 0
KWE2 230700Z 20005KT 04/04 A3007 RMK A01 T00370037  RH  100%=      5-min Rain = 0
KWE2 230701Z 19005KT 04/04 A3007 RMK A01 T00360036  RH  100%=      5-min Rain = 0
KWE2 230702Z 20006KT 04/04 A3007 RMK A01 T00360036  RH  100%=      5-min Rain = 0
KWE2 230703Z 20007KT 04/04 A3007 RMK A01 T00360036  RH  100%=      5-min Rain = 0
KWE2 230704Z 19009KT 04/04 A3007 RMK A01 T00370037  RH  100%=      5-min Rain = 0
KWE2 230705Z 19008KT 04/04 A3007 RMK A01 T00370037  RH  100%=      5-min Rain = 0
KWE2 230706Z 20009KT 04/04 A3007 RMK A01 T00370037  RH  100%=      5-min Rain = 0
KWE2 230707Z 21007KT 04/04 A3007 RMK A01 T00370037  RH  100%=      5-min Rain = 0
KWE2 230708Z 20007KT 04/04 A3007 RMK A01 T00370037  RH  100%=      5-min Rain = 0
KWE2 230709Z 20008KT 04/04 A3007 RMK A01 T00370037  RH  100%=      5-min Rain = 0
KWE2 230710Z 21007KT 04/04 A3007 RMK A01 T00370037  RH  100%=      5-min Rain = 0
KWE2 230711Z 21006KT 04/04 A3007 RMK A01 T00380038  RH  100%=      5-min Rain = 0
KWE2 230712Z 20007KT 04/04 A3007 RMK A01 T00380038  RH  100%=      5-min Rain = 0
KWE2 230713Z 21007KT 04/04 A3007 RMK A01 T00390039  RH  100%=      5-min Rain = 0
KWE2 230714Z 21007KT 04/04 A3007 RMK A01 T00390039  RH  100%=      5-min Rain = 0
KWE2 230715Z 21007KT 04/04 A3007 RMK A01 T00400040  RH  100%=      5-min Rain = 0
KWE2 230716Z 21008KT 04/04 A3007 RMK A01 T00400040  RH  100%=      5-min Rain = 0
KWE2 230717Z 22007KT 04/04 A3007 RMK A01 T00400040  RH  100%=      5-min Rain = 0
KWE2 230718Z 22007KT 04/04 A3007 RMK A01 T00390039  RH  100%=      5-min Rain = 0
KWE2 230719Z 22007KT 04/04 A3007 RMK A01 T00390039  RH  100%=      5-min Rain = 0
KWE2 230720Z 21007KT 04/04 A3007 RMK A01 T00380038  RH  100%=      5-min Rain = 0
KWE2 230721Z 21007KT 04/04 A3007 RMK A01 T00380038  RH  100%=      5-min Rain = 0
KWE2 230722Z 22006KT 04/04 A3007 RMK A01 T00380038  RH  100%=      5-min Rain = 0
KWE2 230723Z 21006KT 04/04 A3007 RMK A01 T00380038  RH  100%=      5-min Rain = 0
KWE2 230724Z 22006KT 04/04 A3007 RMK A01 T00380038  RH  100%=      5-min Rain = 0
KWE2 230725Z 22006KT 04/04 A3007 RMK A01 T00380038  RH  100%=      5-min Rain = 0
KWE2 230726Z 22006KT 04/04 A3007 RMK A01 T00380038  RH  100%=      5-min Rain = 0
KWE2 230727Z 22006KT 04/04 A3007 RMK A01 T00380038  RH  100%=      5-min Rain = 0
KWE2 230728Z 21006KT 04/04 A3007 RMK A01 T00370037  RH  100%=      5-min Rain = 0
KWE2 230729Z 21006KT 04/04 A3007 RMK A01 T00370037  RH  100%=      5-min Rain = 0
KWE2 230730Z 21007KT 04/04 A3007 RMK A01 T00360036  RH  100%=      5-min Rain = 0
KWE2 230731Z 21008KT 04/04 A3006 RMK A01 T00370037  RH  100%=      5-min Rain = 0
KWE2 230732Z 22007KT 04/04 A3007 RMK A01 T00370037  RH  100%=      5-min Rain = 0
KWE2 230733Z 22007KT 04/04 A3006 RMK A01 T00360036  RH  100%=      5-min Rain = 0
KWE2 230734Z 22007KT 04/04 A3007 RMK A01 T00370037  RH  100%=      5-min Rain = 0
KWE2 230735Z 22007KT 04/04 A3007 RMK A01 T00370037  RH  100%=      5-min Rain = 0
KWE2 230736Z 23007KT 04/04 A3007 RMK A01 T00380038  RH  100%=      5-min Rain = 0
KWE2 230737Z 23007KT 04/04 A3006 RMK A01 T00390039  RH  100%=      5-min Rain = 0
KWE2 230738Z 24007KT 04/04 A3006 RMK A01 T00400040  RH  100%=      5-min Rain = 0
KWE2 230739Z 24008KT 04/04 A3006 RMK A01 T00410041  RH  100%=      5-min Rain = 0
KWE2 230740Z 24008KT 04/04 A3006 RMK A01 T00430043  RH  100%=      5-min Rain = 0
KWE2 230741Z 25007KT 05/04 A3006 RMK A01 T00450044  RH  099%=      5-min Rain = 0
KWE2 230742Z 25007KT 05/04 A3006 RMK A01 T00460041  RH  097%=      5-min Rain = 0
KWE2 230743Z 25007KT 05/04 A3006 RMK A01 T00460039  RH  095%=      5-min Rain = 0
KWE2 230744Z 25007KT 05/04 A3006 RMK A01 T00460039  RH  095%=      5-min Rain = 0
KWE2 230745Z 25007KT 05/04 A3006 RMK A01 T00460038  RH  094%=      5-min Rain = 0
KWE2 230746Z 25006KT 05/04 A3006 RMK A01 T00460037  RH  094%=      5-min Rain = 0
KWE2 230747Z 26007KT 05/04 A3006 RMK A01 T00470037  RH  093%=      5-min Rain = 0
KWE2 230748Z 26007KT 05/04 A3006 RMK A01 T00460036  RH  093%=      5-min Rain = 0
KWE2 230749Z 26007KT 05/04 A3006 RMK A01 T00450035  RH  093%=      5-min Rain = 0
KWE2 230750Z 26007KT 05/04 A3006 RMK A01 T00450035  RH  093%=      5-min Rain = 0
KWE2 230751Z 26007KT 05/04 A3006 RMK A01 T00450035  RH  093%=      5-min Rain = 0
KWE2 230752Z 25007KT 05/04 A3006 RMK A01 T00450035  RH  093%=      5-min Rain = 0
KWE2 230753Z 25007KT 05/04 A3006 RMK A01 T00450035  RH  093%=      5-min Rain = 0
KWE2 230754Z 25007KT 05/03 A3006 RMK A01 T00450034  RH  093%=      5-min Rain = 0
KWE2 230755Z 25007KT 04/03 A3006 RMK A01 T00440034  RH  093%=      5-min Rain = 0
KWE2 230756Z 25007KT 04/03 A3006 RMK A01 T00430033  RH  093%=      5-min Rain = 0
KWE2 230757Z 24007KT 04/03 A3006 RMK A01 T00430034  RH  094%=      5-min Rain = 0
KWE2 230758Z 24007KT 04/03 A3006 RMK A01 T00420034  RH  094%=      5-min Rain = 0
KWE2 230759Z 24007KT 04/03 A3006 RMK A01 T00420033  RH  095%=      5-min Rain = 0
KWE2 230800Z 25007KT 04/03 A3006 RMK A01 T00410033  RH  095%=      5-min Rain = 0
KWE2 230801Z 24006KT 04/03 A3006 RMK A01 T00410033  RH  095%=      5-min Rain = 0
KWE2 230802Z 24006KT 04/03 A3006 RMK A01 T00410033  RH  094%=      5-min Rain = 0
KWE2 230803Z 24006KT 04/03 A3006 RMK A01 T00400032  RH  094%=      5-min Rain = 0
KWE2 230804Z 24006KT 04/03 A3006 RMK A01 T00400032  RH  095%=      5-min Rain = 0
KWE2 230805Z 24006KT 04/03 A3006 RMK A01 T00390032  RH  095%=      5-min Rain = 0
KWE2 230806Z 24006KT 04/03 A3006 RMK A01 T00390032  RH  095%=      5-min Rain = 0
KWE2 230807Z 24006KT 04/03 A3006 RMK A01 T00380032  RH  096%=      5-min Rain = 0
KWE2 230808Z 24006KT 04/03 A3006 RMK A01 T00370032  RH  096%=      5-min Rain = 0
KWE2 230809Z 24006KT 04/03 A3006 RMK A01 T00370031  RH  096%=      5-min Rain = 0
KWE2 230810Z 24006KT 04/03 A3006 RMK A01 T00370031  RH  096%=      5-min Rain = 0
KWE2 230811Z 24006KT 04/03 A3006 RMK A01 T00370031  RH  096%=      5-min Rain = 0
KWE2 230812Z 25006KT 04/03 A3006 RMK A01 T00360031  RH  096%=      5-min Rain = 0
KWE2 230813Z 25006KT 04/03 A3006 RMK A01 T00370031  RH  096%=      5-min Rain = 0
KWE2 230814Z 24006KT 04/03 A3006 RMK A01 T00370031  RH  096%=      5-min Rain = 0
KWE2 230815Z 24005KT 04/03 A3006 RMK A01 T00360030  RH  096%=      5-min Rain = 0
KWE2 230816Z 24006KT 04/03 A3006 RMK A01 T00370031  RH  096%=      5-min Rain = 0
KWE2 230817Z 24006KT 04/03 A3006 RMK A01 T00380031  RH  095%=      5-min Rain = 0
KWE2 230818Z 24006KT 04/03 A3006 RMK A01 T00370030  RH  095%=      5-min Rain = 0
KWE2 230819Z 24006KT 04/03 A3006 RMK A01 T00370030  RH  095%=      5-min Rain = 0
KWE2 230820Z 24006KT 04/03 A3006 RMK A01 T00370030  RH  095%=      5-min Rain = 0
KWE2 230821Z 24006KT 04/03 A3006 RMK A01 T00370030  RH  095%=      5-min Rain = 0
KWE2 230822Z 24006KT 04/03 A3006 RMK A01 T00360030  RH  096%=      5-min Rain = 0
KWE2 230823Z 24006KT 04/03 A3006 RMK A01 T00360030  RH  096%=      5-min Rain = 0
KWE2 230824Z 24006KT 04/03 A3006 RMK A01 T00360030  RH  096%=      5-min Rain = 0
KWE2 230825Z 25006KT 04/03 A3006 RMK A01 T00360029  RH  096%=      5-min Rain = 0
KWE2 230826Z 25006KT 04/03 A3006 RMK A01 T00360029  RH  095%=      5-min Rain = 0
KWE2 230827Z 25006KT 04/03 A3006 RMK A01 T00360029  RH  095%=      5-min Rain = 0
KWE2 230828Z 25006KT 04/03 A3006 RMK A01 T00360028  RH  095%=      5-min Rain = 0
KWE2 230829Z 25007KT 04/03 A3006 RMK A01 T00360027  RH  094%=      5-min Rain = 0
KWE2 230830Z 25006KT 04/03 A3006 RMK A01 T00360027  RH  094%=      5-min Rain = 0
KWE2 230831Z 25006KT 04/03 A3006 RMK A01 T00360027  RH  094%=      5-min Rain = 0
KWE2 230832Z 25006KT 04/03 A3006 RMK A01 T00360026  RH  093%=      5-min Rain = 0
KWE2 230833Z 25007KT 04/03 A3006 RMK A01 T00370026  RH  093%=      5-min Rain = 0
KWE2 230834Z 25006KT 04/03 A3006 RMK A01 T00370026  RH  092%=      5-min Rain = 0
KWE2 230835Z 25006KT 04/03 A3006 RMK A01 T00370025  RH  092%=      5-min Rain = 0
KWE2 230836Z 25006KT 04/03 A3006 RMK A01 T00380025  RH  091%=      5-min Rain = 0
KWE2 230837Z 25006KT 04/02 A3006 RMK A01 T00380024  RH  091%=      5-min Rain = 0
KWE2 230838Z 25006KT 04/02 A3006 RMK A01 T00380024  RH  091%=      5-min Rain = 0
KWE2 230839Z 25006KT 04/02 A3006 RMK A01 T00370024  RH  091%=      5-min Rain = 0
KWE2 230840Z 25006KT 04/02 A3006 RMK A01 T00360024  RH  091%=      5-min Rain = 0
KWE2 230841Z 25006KT 04/02 A3006 RMK A01 T00360024  RH  092%=      5-min Rain = 0
KWE2 230842Z 25006KT 04/02 A3006 RMK A01 T00350024  RH  092%=      5-min Rain = 0
KWE2 230843Z 25006KT 04/02 A3006 RMK A01 T00350023  RH  092%=      5-min Rain = 0
KWE2 230844Z 25006KT 03/02 A3006 RMK A01 T00340023  RH  093%=      5-min Rain = 0
KWE2 230845Z 25006KT 03/02 A3006 RMK A01 T00330023  RH  093%=      5-min Rain = 0
KWE2 230846Z 25005KT 03/02 A3006 RMK A01 T00330023  RH  093%=      5-min Rain = 0
KWE2 230847Z 25005KT 03/02 A3006 RMK A01 T00320023  RH  094%=      5-min Rain = 0
KWE2 230848Z 25005KT 03/02 A3006 RMK A01 T00320024  RH  095%=      5-min Rain = 0
KWE2 230849Z 24006KT 03/02 A3006 RMK A01 T00320024  RH  095%=      5-min Rain = 0
KWE2 230850Z 24006KT 03/02 A3006 RMK A01 T00320024  RH  095%=      5-min Rain = 0
KWE2 230851Z 24006KT 03/02 A3006 RMK A01 T00320024  RH  095%=      5-min Rain = 0
KWE2 230852Z 23005KT 03/02 A3006 RMK A01 T00310023  RH  095%=      5-min Rain = 0
KWE2 230853Z 23005KT 03/02 A3006 RMK A01 T00290022  RH  095%=      5-min Rain = 0
KWE2 230854Z 23005KT 03/02 A3006 RMK A01 T00280021  RH  095%=      5-min Rain = 0
KWE2 230855Z 22005KT 03/02 A3006 RMK A01 T00270021  RH  096%=      5-min Rain = 0
KWE2 230856Z 22006KT 03/02 A3006 RMK A01 T00260022  RH  097%=      5-min Rain = 0
KWE2 230857Z 22005KT 03/02 A3006 RMK A01 T00260023  RH  098%=      5-min Rain = 0
KWE2 230858Z 22005KT 03/02 A3006 RMK A01 T00260023  RH  098%=      5-min Rain = 0
KWE2 230859Z 22006KT 03/02 A3006 RMK A01 T00250023  RH  099%=      5-min Rain = 0
KWE2 230900Z 22006KT 03/02 A3006 RMK A01 T00250023  RH  099%=      5-min Rain = 0
KWE2 230901Z 22007KT 03/02 A3006 RMK A01 T00250024  RH  099%=      5-min Rain = 0
KWE2 230902Z 22007KT 03/03 A3006 RMK A01 T00250025  RH  100%=      5-min Rain = 0
KWE2 230903Z 22007KT 03/03 A3006 RMK A01 T00250025  RH  100%=      5-min Rain = 0
KWE2 230904Z 22006KT 03/03 A3006 RMK A01 T00250025  RH  100%=      5-min Rain = 0
KWE2 230905Z 22006KT 03/03 A3006 RMK A01 T00250025  RH  100%=      5-min Rain = 0
KWE2 230906Z 22006KT 03/03 A3006 RMK A01 T00250025  RH  100%=      5-min Rain = 0
KWE2 230907Z 22006KT 03/03 A3006 RMK A01 T00250025  RH  100%=      5-min Rain = 0
KWE2 230908Z 23006KT 03/03 A3006 RMK A01 T00250025  RH  100%=      5-min Rain = 0
KWE2 230909Z 23007KT 03/03 A3006 RMK A01 T00250025  RH  100%=      5-min Rain = 0
KWE2 230910Z 23007KT 03/03 A3006 RMK A01 T00250025  RH  100%=      5-min Rain = 0
KWE2 230911Z 23007KT 03/03 A3006 RMK A01 T00250025  RH  100%=      5-min Rain = 0
KWE2 230912Z 23006KT 03/03 A3006 RMK A01 T00250025  RH  100%=      5-min Rain = 0
KWE2 230913Z 23006KT 03/03 A3007 RMK A01 T00250025  RH  100%=      5-min Rain = 0
KWE2 230914Z 23006KT 03/03 A3006 RMK A01 T00250025  RH  100%=      5-min Rain = 0
KWE2 230915Z 23007KT 03/03 A3006 RMK A01 T00250025  RH  100%=      5-min Rain = 0
KWE2 230916Z 23007KT 03/03 A3006 RMK A01 T00250025  RH  100%=      5-min Rain = 0
KWE2 230917Z 23007KT 03/03 A3006 RMK A01 T00250025  RH  100%=      5-min Rain = 0
KWE2 230918Z 23007KT 03/03 A3006 RMK A01 T00250025  RH  100%=      5-min Rain = 0
KWE2 230919Z 23006KT 03/03 A3006 RMK A01 T00250025  RH  100%=      5-min Rain = 0
KWE2 230920Z 23006KT 03/02 A3006 RMK A01 T00260024  RH  099%=      5-min Rain = 0
KWE2 230921Z 23006KT 03/02 A3006 RMK A01 T00250024  RH  099%=      5-min Rain = 0
KWE2 230922Z 23007KT 03/02 A3006 RMK A01 T00250024  RH  099%=      5-min Rain = 0
KWE2 230923Z 23006KT 03/02 A3006 RMK A01 T00250024  RH  099%=      5-min Rain = 0
KWE2 230924Z 23007KT 03/02 A3006 RMK A01 T00250023  RH  099%=      5-min Rain = 0
KWE2 230925Z 23007KT 03/02 A3006 RMK A01 T00250023  RH  099%=      5-min Rain = 0
KWE2 230926Z 23006KT 03/02 A3006 RMK A01 T00250023  RH  099%=      5-min Rain = 0
KWE2 230927Z 23006KT 02/02 A3006 RMK A01 T00240023  RH  099%=      5-min Rain = 0
KWE2 230928Z 23006KT 03/02 A3006 RMK A01 T00250023  RH  099%=      5-min Rain = 0
KWE2 230929Z 23005KT 03/02 A3007 RMK A01 T00250023  RH  099%=      5-min Rain = 0
KWE2 230930Z 23005KT 03/02 A3007 RMK A01 T00250022  RH  098%=      5-min Rain = 0
KWE2 230931Z 24005KT 03/02 A3007 RMK A01 T00250022  RH  098%=      5-min Rain = 0
KWE2 230932Z 23006KT 03/02 A3007 RMK A01 T00250022  RH  098%=      5-min Rain = 0
KWE2 230933Z 23006KT 03/02 A3007 RMK A01 T00250022  RH  098%=      5-min Rain = 0
KWE2 230934Z 23006KT 03/02 A3007 RMK A01 T00250021  RH  097%=      5-min Rain = 0
KWE2 230935Z 23006KT 03/02 A3007 RMK A01 T00260021  RH  097%=      5-min Rain = 0
KWE2 230936Z 23006KT 03/02 A3007 RMK A01 T00260021  RH  097%=      5-min Rain = 0
KWE2 230937Z 24006KT 03/02 A3007 RMK A01 T00260021  RH  097%=      5-min Rain = 0
KWE2 230938Z 24006KT 03/02 A3007 RMK A01 T00260021  RH  096%=      5-min Rain = 0
KWE2 230939Z 24006KT 03/02 A3006 RMK A01 T00260021  RH  096%=      5-min Rain = 0
KWE2 230940Z 25007KT 03/02 A3006 RMK A01 T00260021  RH  096%=      5-min Rain = 0
KWE2 230941Z 25007KT 03/02 A3006 RMK A01 T00270020  RH  095%=      5-min Rain = 0
KWE2 230942Z 25007KT 03/02 A3006 RMK A01 T00280020  RH  095%=      5-min Rain = 0
KWE2 230943Z 26007KT 03/02 A3006 RMK A01 T00280020  RH  094%=      5-min Rain = 0
KWE2 230944Z 26007KT 03/02 A3006 RMK A01 T00290019  RH  093%=      5-min Rain = 0
KWE2 230945Z 26007KT 03/02 A3006 RMK A01 T00310020  RH  092%=      5-min Rain = 0
KWE2 230946Z 26007KT 03/02 A3006 RMK A01 T00320018  RH  091%=      5-min Rain = 0
KWE2 230947Z 26008KT 03/02 A3006 RMK A01 T00320018  RH  090%=      5-min Rain = 0
KWE2 230948Z 26007KT 03/02 A3006 RMK A01 T00320017  RH  090%=      5-min Rain = 0
KWE2 230949Z 27008KT 03/02 A3006 RMK A01 T00330018  RH  090%=      5-min Rain = 0
KWE2 230950Z 27008KT 03/02 A3006 RMK A01 T00340018  RH  089%=      5-min Rain = 0
KWE2 230951Z 27007KT 04/02 A3006 RMK A01 T00350018  RH  088%=      5-min Rain = 0
KWE2 230952Z 27008KT 04/02 A3006 RMK A01 T00360018  RH  088%=      5-min Rain = 0
KWE2 230953Z 27008KT 04/02 A3006 RMK A01 T00370018  RH  087%=      5-min Rain = 0
KWE2 230954Z 27008KT 04/02 A3006 RMK A01 T00380018  RH  087%=      5-min Rain = 0
KWE2 230955Z 27008KT 04/02 A3006 RMK A01 T00390018  RH  086%=      5-min Rain = 0
KWE2 230956Z 27008KT 04/02 A3006 RMK A01 T00410018  RH  085%=      5-min Rain = 0
KWE2 230957Z 27008KT 04/02 A3006 RMK A01 T00420018  RH  084%=      5-min Rain = 0
KWE2 230958Z 27007KT 04/02 A3006 RMK A01 T00430018  RH  084%=      5-min Rain = 0
KWE2 230959Z 27007KT 04/02 A3006 RMK A01 T00430018  RH  084%=      5-min Rain = 0
KWE2 231000Z 27007KT 04/02 A3006 RMK A01 T00430018  RH  083%=      5-min Rain = 0
KWE2 231001Z 27007KT 04/02 A3006 RMK A01 T00440017  RH  083%=      5-min Rain = 0
KWE2 231002Z 27008KT 04/02 A3006 RMK A01 T00440018  RH  083%=      5-min Rain = 0
KWE2 231003Z 27008KT 04/02 A3006 RMK A01 T00440017  RH  083%=      5-min Rain = 0
KWE2 231004Z 28007KT 05/02 A3006 RMK A01 T00450017  RH  083%=      5-min Rain = 0
KWE2 231005Z 28007KT 05/02 A3006 RMK A01 T00450017  RH  082%=      5-min Rain = 0
KWE2 231006Z 28007KT 05/02 A3006 RMK A01 T00460018  RH  082%=      5-min Rain = 0
KWE2 231007Z 29007KT 05/02 A3006 RMK A01 T00450017  RH  082%=      5-min Rain = 0
KWE2 231008Z 29007KT 05/02 A3006 RMK A01 T00450017  RH  082%=      5-min Rain = 0
KWE2 231009Z 29007KT 05/02 A3006 RMK A01 T00460017  RH  081%=      5-min Rain = 0
KWE2 231010Z 29008KT 05/02 A3006 RMK A01 T00470017  RH  081%=      5-min Rain = 0
KWE2 231011Z 29008KT 05/02 A3006 RMK A01 T00490017  RH  080%=      5-min Rain = 0
KWE2 231012Z 29010KT 05/02 A3006 RMK A01 T00530017  RH  078%=      5-min Rain = 0
KWE2 231013Z 29010KT 06/02 A3006 RMK A01 T00590018  RH  075%=      5-min Rain = 0
KWE2 231014Z 29010KT 06/02 A3006 RMK A01 T00620017  RH  073%=      5-min Rain = 0
KWE2 231015Z 29010KT 06/02 A3006 RMK A01 T00640017  RH  072%=      5-min Rain = 0
KWE2 231016Z 29010KT 07/02 A3006 RMK A01 T00650016  RH  071%=      5-min Rain = 0
KWE2 231017Z 29012KT 07/02 A3006 RMK A01 T00660015  RH  070%=      5-min Rain = 0
KWE2 231018Z 29012KT 07/02 A3006 RMK A01 T00680015  RH  069%=      5-min Rain = 0
KWE2 231019Z 29012KT 07/01 A3006 RMK A01 T00690014  RH  068%=      5-min Rain = 0
KWE2 231020Z 29011KT 07/02 A3006 RMK A01 T00700015  RH  068%=      5-min Rain = 0
KWE2 231021Z 29012KT 07/02 A3006 RMK A01 T00700015  RH  068%=      5-min Rain = 0
KWE2 231022Z 29012KT 07/02 A3006 RMK A01 T00700015  RH  068%=      5-min Rain = 0
KWE2 231023Z 29012KT 07/01 A3006 RMK A01 T00700014  RH  068%=      5-min Rain = 0
KWE2 231024Z 29012KT 07/01 A3006 RMK A01 T00700014  RH  068%=      5-min Rain = 0
KWE2 231025Z 29013KT 07/01 A3006 RMK A01 T00700013  RH  067%=      5-min Rain = 0
KWE2 231026Z 29011KT 07/01 A3006 RMK A01 T00700013  RH  067%=      5-min Rain = 0
KWE2 231027Z 29011KT 07/01 A3006 RMK A01 T00700014  RH  067%=      5-min Rain = 0
KWE2 231028Z 30012KT 07/01 A3006 RMK A01 T00700013  RH  067%=      5-min Rain = 0
KWE2 231029Z 30011KT 07/01 A3006 RMK A01 T00700013  RH  067%=      5-min Rain = 0
KWE2 231030Z 30012KT 07/01 A3006 RMK A01 T00700013  RH  067%=      5-min Rain = 0
KWE2 231031Z 30012KT 07/01 A3006 RMK A01 T00700013  RH  067%=      5-min Rain = 0
KWE2 231032Z 30011KT 07/01 A3006 RMK A01 T00710013  RH  067%=      5-min Rain = 0
KWE2 231033Z 29010KT 07/01 A3006 RMK A01 T00700013  RH  067%=      5-min Rain = 0
KWE2 231034Z 29010KT 07/01 A3006 RMK A01 T00700014  RH  068%=      5-min Rain = 0
KWE2 231035Z 29010KT 07/01 A3006 RMK A01 T00690013  RH  068%=      5-min Rain = 0
KWE2 231036Z 30011KT 07/01 A3006 RMK A01 T00680013  RH  068%=      5-min Rain = 0
KWE2 231037Z 30011KT 07/01 A3006 RMK A01 T00680013  RH  068%=      5-min Rain = 0
KWE2 231038Z 30011KT 07/01 A3006 RMK A01 T00680013  RH  068%=      5-min Rain = 0
KWE2 231039Z 30010KT 07/01 A3006 RMK A01 T00680012  RH  068%=      5-min Rain = 0
KWE2 231040Z 30011KT 07/01 A3006 RMK A01 T00680012  RH  068%=      5-min Rain = 0
KWE2 231041Z 30010KT 07/01 A3006 RMK A01 T00680013  RH  068%=      5-min Rain = 0
KWE2 231042Z 30011KT 07/01 A3006 RMK A01 T00670013  RH  068%=      5-min Rain = 0
KWE2 231043Z 30010KT 07/01 A3006 RMK A01 T00670013  RH  068%=      5-min Rain = 0
KWE2 231044Z 30010KT 07/01 A3006 RMK A01 T00670013  RH  069%=      5-min Rain = 0
KWE2 231045Z 30011KT 07/01 A3006 RMK A01 T00660012  RH  069%=      5-min Rain = 0
KWE2 231046Z 30011KT 07/01 A3006 RMK A01 T00660012  RH  068%=      5-min Rain = 0
KWE2 231047Z 30011KT 07/01 A3006 RMK A01 T00660012  RH  068%=      5-min Rain = 0
KWE2 231048Z 30011KT 07/01 A3006 RMK A01 T00660013  RH  069%=      5-min Rain = 0
KWE2 231049Z 30011KT 07/01 A3006 RMK A01 T00660012  RH  069%=      5-min Rain = 0
KWE2 231050Z 30011KT 07/01 A3006 RMK A01 T00660012  RH  068%=      5-min Rain = 0
KWE2 231051Z 30011KT 07/01 A3006 RMK A01 T00660012  RH  069%=      5-min Rain = 0
KWE2 231052Z 30010KT 07/01 A3006 RMK A01 T00660012  RH  069%=      5-min Rain = 0
KWE2 231053Z 30010KT 07/01 A3006 RMK A01 T00660012  RH  069%=      5-min Rain = 0
KWE2 231054Z 30011KT 07/01 A3006 RMK A01 T00660012  RH  068%=      5-min Rain = 0
KWE2 231055Z 30009KT 07/01 A3006 RMK A01 T00660011  RH  068%=      5-min Rain = 0
KWE2 231056Z 30010KT 07/01 A3006 RMK A01 T00660012  RH  068%=      5-min Rain = 0
KWE2 231057Z 30010KT 07/01 A3006 RMK A01 T00660012  RH  068%=      5-min Rain = 0
KWE2 231058Z 30010KT 07/01 A3006 RMK A01 T00660012  RH  068%=      5-min Rain = 0
KWE2 231059Z 30010KT 07/01 A3006 RMK A01 T00650012  RH  068%=      5-min Rain = 0
KWE2 231100Z 30010KT 07/01 A3006 RMK A01 T00650012  RH  069%=      5-min Rain = 0
KWE2 231101Z 30009KT 07/01 A3006 RMK A01 T00650012  RH  069%=      5-min Rain = 0
KWE2 231102Z 30010KT 07/01 A3006 RMK A01 T00650011  RH  069%=      5-min Rain = 0
KWE2 231103Z 29009KT 07/01 A3006 RMK A01 T00650012  RH  069%=      5-min Rain = 0
KWE2 231104Z 30009KT 07/01 A3006 RMK A01 T00650012  RH  069%=      5-min Rain = 0
KWE2 231105Z 30008KT 06/01 A3006 RMK A01 T00640012  RH  069%=      5-min Rain = 0
KWE2 231106Z 30009KT 06/01 A3006 RMK A01 T00640012  RH  069%=      5-min Rain = 0
KWE2 231107Z 29009KT 06/01 A3006 RMK A01 T00630012  RH  070%=      5-min Rain = 0
KWE2 231108Z 29009KT 06/01 A3006 RMK A01 T00630011  RH  070%=      5-min Rain = 0
KWE2 231109Z 29008KT 06/01 A3006 RMK A01 T00630011  RH  070%=      5-min Rain = 0
KWE2 231110Z 29008KT 06/01 A3006 RMK A01 T00630011  RH  070%=      5-min Rain = 0
KWE2 231111Z 29007KT 06/01 A3006 RMK A01 T00620012  RH  070%=      5-min Rain = 0
KWE2 231112Z 29008KT 06/01 A3006 RMK A01 T00610011  RH  070%=      5-min Rain = 0
KWE2 231113Z 29007KT 06/01 A3006 RMK A01 T00610011  RH  070%=      5-min Rain = 0
KWE2 231114Z 30007KT 06/01 A3006 RMK A01 T00620011  RH  070%=      5-min Rain = 0
KWE2 231115Z 30007KT 06/01 A3006 RMK A01 T00610011  RH  070%=      5-min Rain = 0
KWE2 231116Z 30007KT 06/01 A3007 RMK A01 T00600011  RH  071%=      5-min Rain = 0
KWE2 231117Z 30007KT 06/01 A3007 RMK A01 T00600011  RH  071%=      5-min Rain = 0
KWE2 231118Z 31007KT 06/01 A3007 RMK A01 T00590011  RH  071%=      5-min Rain = 0
KWE2 231119Z 30007KT 06/01 A3007 RMK A01 T00590012  RH  071%=      5-min Rain = 0
KWE2 231120Z 30007KT 06/01 A3007 RMK A01 T00600012  RH  071%=      5-min Rain = 0
KWE2 231121Z 30008KT 06/01 A3007 RMK A01 T00590011  RH  071%=      5-min Rain = 0
KWE2 231122Z 30008KT 06/01 A3007 RMK A01 T00590011  RH  071%=      5-min Rain = 0
KWE2 231123Z 30009KT 06/01 A3007 RMK A01 T00590011  RH  071%=      5-min Rain = 0
KWE2 231124Z 30008KT 06/01 A3007 RMK A01 T00600011  RH  071%=      5-min Rain = 0
KWE2 231125Z 29008KT 06/01 A3007 RMK A01 T00600011  RH  071%=      5-min Rain = 0
KWE2 231126Z 29008KT 06/01 A3006 RMK A01 T00600011  RH  071%=      5-min Rain = 0
KWE2 231127Z 29008KT 06/01 A3006 RMK A01 T00590011  RH  071%=      5-min Rain = 0
KWE2 231128Z 28009KT 06/01 A3006 RMK A01 T00590010  RH  071%=      5-min Rain = 0
KWE2 231129Z 29009KT 06/01 A3006 RMK A01 T00590010  RH  071%=      5-min Rain = 0
KWE2 231130Z 29008KT 06/01 A3006 RMK A01 T00590010  RH  071%=      5-min Rain = 0
KWE2 231131Z 29008KT 06/01 A3006 RMK A01 T00590011  RH  071%=      5-min Rain = 0
KWE2 231132Z 29007KT 06/01 A3006 RMK A01 T00590010  RH  071%=      5-min Rain = 0
KWE2 231133Z 29007KT 06/01 A3006 RMK A01 T00580011  RH  071%=      5-min Rain = 0
KWE2 231134Z 29007KT 06/01 A3006 RMK A01 T00580011  RH  072%=      5-min Rain = 0
KWE2 231135Z 29007KT 06/01 A3006 RMK A01 T00570011  RH  072%=      5-min Rain = 0
KWE2 231136Z 29007KT 06/01 A3007 RMK A01 T00570011  RH  072%=      5-min Rain = 0
KWE2 231137Z 28006KT 06/01 A3007 RMK A01 T00560011  RH  073%=      5-min Rain = 0
KWE2 231138Z 28006KT 06/01 A3007 RMK A01 T00550011  RH  073%=      5-min Rain = 0
KWE2 231139Z 28006KT 05/01 A3007 RMK A01 T00540011  RH  073%=      5-min Rain = 0
KWE2 231140Z 28006KT 05/01 A3007 RMK A01 T00530011  RH  074%=      5-min Rain = 0
KWE2 231141Z 28005KT 05/01 A3007 RMK A01 T00520011  RH  075%=      5-min Rain = 0
KWE2 231142Z 28006KT 05/01 A3007 RMK A01 T00510011  RH  075%=      5-min Rain = 0
KWE2 231143Z 29006KT 05/01 A3007 RMK A01 T00500011  RH  076%=      5-min Rain = 0
KWE2 231144Z 28006KT 05/01 A3007 RMK A01 T00500011  RH  076%=      5-min Rain = 0
KWE2 231145Z 29006KT 05/01 A3007 RMK A01 T00490011  RH  076%=      5-min Rain = 0
KWE2 231146Z 29006KT 05/01 A3007 RMK A01 T00480010  RH  076%=      5-min Rain = 0
KWE2 231147Z 29007KT 05/01 A3007 RMK A01 T00480010  RH  076%=      5-min Rain = 0
KWE2 231148Z 29007KT 05/01 A3007 RMK A01 T00490010  RH  076%=      5-min Rain = 0
KWE2 231149Z 28007KT 05/01 A3007 RMK A01 T00500010  RH  075%=      5-min Rain = 0
KWE2 231150Z 28007KT 05/01 A3007 RMK A01 T00500010  RH  075%=      5-min Rain = 0
KWE2 231151Z 28008KT 05/01 A3007 RMK A01 T00510011  RH  075%=      5-min Rain = 0
KWE2 231152Z 28007KT 05/01 A3007 RMK A01 T00510010  RH  075%=      5-min Rain = 0
KWE2 231153Z 28007KT 05/01 A3007 RMK A01 T00510010  RH  075%=      5-min Rain = 0
KWE2 231154Z 28007KT 05/01 A3007 RMK A01 T00510010  RH  075%=      5-min Rain = 0
KWE2 231155Z 28007KT 05/01 A3007 RMK A01 T00510010  RH  075%=      5-min Rain = 0
KWE2 231156Z 28008KT 05/01 A3007 RMK A01 T00510010  RH  075%=      5-min Rain = 0
KWE2 231157Z 29007KT 05/01 A3007 RMK A01 T00510010  RH  075%=      5-min Rain = 0
KWE2 231158Z 28008KT 05/01 A3007 RMK A01 T00520010  RH  074%=      5-min Rain = 0
KWE2 231159Z 29007KT 05/01 A3007 RMK A01 T00520010  RH  074%=      5-min Rain = 0
KWE2 231200Z 29008KT 05/01 A3008 RMK A01 T00520010  RH  074%=      5-min Rain = 0
KWE2 231201Z 29007KT 05/01 A3008 RMK A01 T00520010  RH  074%=      5-min Rain = 0
KWE2 231202Z 29008KT 05/01 A3008 RMK A01 T00530009  RH  074%=      5-min Rain = 0
KWE2 231203Z 29007KT 05/01 A3008 RMK A01 T00530009  RH  074%=      5-min Rain = 0
KWE2 231204Z 29007KT 05/01 A3008 RMK A01 T00530010  RH  074%=      5-min Rain = 0
KWE2 231205Z 29007KT 05/01 A3008 RMK A01 T00530010  RH  074%=      5-min Rain = 0
KWE2 231206Z 29007KT 05/01 A3008 RMK A01 T00530010  RH  074%=      5-min Rain = 0
KWE2 231207Z 30007KT 05/01 A3008 RMK A01 T00520010  RH  074%=      5-min Rain = 0
KWE2 231208Z 30006KT 05/01 A3008 RMK A01 T00520010  RH  074%=      5-min Rain = 0
KWE2 231209Z 31006KT 05/01 A3008 RMK A01 T00520010  RH  075%=      5-min Rain = 0
KWE2 231210Z 31006KT 05/01 A3008 RMK A01 T00500010  RH  075%=      5-min Rain = 0
KWE2 231211Z 32006KT 05/01 A3008 RMK A01 T00490010  RH  076%=      5-min Rain = 0
KWE2 231212Z 32006KT 05/01 A3008 RMK A01 T00470010  RH  077%=      5-min Rain = 0
KWE2 231213Z 32006KT 05/01 A3008 RMK A01 T00450010  RH  078%=      5-min Rain = 0
KWE2 231214Z 31006KT 04/01 A3008 RMK A01 T00430010  RH  079%=      5-min Rain = 0
KWE2 231215Z 31006KT 04/01 A3008 RMK A01 T00420009  RH  079%=      5-min Rain = 0
KWE2 231216Z 31006KT 04/01 A3008 RMK A01 T00410009  RH  080%=      5-min Rain = 0
KWE2 231217Z 31006KT 04/01 A3008 RMK A01 T00400009  RH  080%=      5-min Rain = 0
KWE2 231218Z 31006KT 04/01 A3008 RMK A01 T00400010  RH  080%=      5-min Rain = 0
KWE2 231219Z 31005KT 04/01 A3008 RMK A01 T00400009  RH  081%=      5-min Rain = 0
KWE2 231220Z 32005KT 04/01 A3008 RMK A01 T00390009  RH  081%=      5-min Rain = 0
KWE2 231221Z 32005KT 04/01 A3009 RMK A01 T00380009  RH  081%=      5-min Rain = 0
KWE2 231222Z 32005KT 04/01 A3009 RMK A01 T00360009  RH  082%=      5-min Rain = 0
KWE2 231223Z 32005KT 04/01 A3009 RMK A01 T00350009  RH  083%=      5-min Rain = 0
KWE2 231224Z 32005KT 03/01 A3009 RMK A01 T00340009  RH  084%=      5-min Rain = 0
KWE2 231225Z 32005KT 03/01 A3009 RMK A01 T00330009  RH  084%=      5-min Rain = 0
KWE2 231226Z 32005KT 03/01 A3009 RMK A01 T00320008  RH  085%=      5-min Rain = 0
KWE2 231227Z 32005KT 03/01 A3009 RMK A01 T00310008  RH  085%=      5-min Rain = 0
KWE2 231228Z 32005KT 03/01 A3009 RMK A01 T00300008  RH  085%=      5-min Rain = 0
KWE2 231229Z 32005KT 03/01 A3009 RMK A01 T00300008  RH  085%=      5-min Rain = 0
KWE2 231230Z 32005KT 03/01 A3009 RMK A01 T00290008  RH  086%=      5-min Rain = 0
KWE2 231231Z 32005KT 03/01 A3009 RMK A01 T00290007  RH  086%=      5-min Rain = 0
KWE2 231232Z 32005KT 03/01 A3009 RMK A01 T00280007  RH  086%=      5-min Rain = 0
KWE2 231233Z 32005KT 03/01 A301 RMK A01 T00270007  RH  086%=      5-min Rain = 0
KWE2 231234Z 32005KT 03/01 A301 RMK A01 T00270007  RH  086%=      5-min Rain = 0
KWE2 231235Z 32006KT 03/01 A301 RMK A01 T00270007  RH  087%=      5-min Rain = 0
KWE2 231236Z 33006KT 03/01 A301 RMK A01 T00260006  RH  087%=      5-min Rain = 0
KWE2 231237Z 33005KT 03/01 A301 RMK A01 T00260006  RH  087%=      5-min Rain = 0
KWE2 231238Z 33005KT 03/01 A301 RMK A01 T00250006  RH  087%=      5-min Rain = 0
KWE2 231239Z 33006KT 03/01 A301 RMK A01 T00250006  RH  087%=      5-min Rain = 0
KWE2 231240Z 33006KT 03/01 A301 RMK A01 T00250006  RH  087%=      5-min Rain = 0
KWE2 231241Z 33006KT 03/01 A301 RMK A01 T00260006  RH  087%=      5-min Rain = 0
KWE2 231242Z 34006KT 03/01 A301 RMK A01 T00260006  RH  087%=      5-min Rain = 0
KWE2 231243Z 34005KT 03/01 A301 RMK A01 T00250005  RH  087%=      5-min Rain = 0
KWE2 231244Z 35005KT 02/01 A301 RMK A01 T00230005  RH  088%=      5-min Rain = 0
KWE2 231245Z 34006KT 02/01 A301 RMK A01 T00220005  RH  089%=      5-min Rain = 0
KWE2 231246Z 34006KT 02/01 A301 RMK A01 T00210005  RH  089%=      5-min Rain = 0
KWE2 231247Z 34006KT 02/01 A301 RMK A01 T00200005  RH  090%=      5-min Rain = 0
KWE2 231248Z 35006KT 02/01 A301 RMK A01 T00200006  RH  090%=      5-min Rain = 0
KWE2 231249Z 35006KT 02/01 A301 RMK A01 T00190006  RH  091%=      5-min Rain = 0
KWE2 231250Z 00005KT 02/01 A301 RMK A01 T00200007  RH  091%=      5-min Rain = 0
KWE2 231251Z 00005KT 02/01 A301 RMK A01 T00210007  RH  091%=      5-min Rain = 0
KWE2 231252Z 00006KT 02/01 A301 RMK A01 T00200007  RH  091%=      5-min Rain = 0
KWE2 231253Z 00005KT 02/01 A301 RMK A01 T00200007  RH  091%=      5-min Rain = 0
KWE2 231254Z 36005KT 02/01 A301 RMK A01 T00200007  RH  092%=      5-min Rain = 0
KWE2 231255Z 35005KT 02/01 A301 RMK A01 T00190007  RH  092%=      5-min Rain = 0
KWE2 231256Z 35004KT 02/01 A301 RMK A01 T00190007  RH  092%=      5-min Rain = 0
KWE2 231257Z 34005KT 02/01 A301 RMK A01 T00190007  RH  092%=      5-min Rain = 0
KWE2 231258Z 34004KT 02/01 A301 RMK A01 T00190006  RH  092%=      5-min Rain = 0
KWE2 231259Z 34005KT 02/01 A301 RMK A01 T00190007  RH  092%=      5-min Rain = 0
KWE2 231300Z 34005KT 02/01 A301 RMK A01 T00190007  RH  092%=      5-min Rain = 0
KWE2 231301Z 34005KT 02/01 A301 RMK A01 T00190008  RH  092%=      5-min Rain = 0
KWE2 231302Z 34005KT 02/01 A301 RMK A01 T00200008  RH  092%=      5-min Rain = 0
KWE2 231303Z 33004KT 02/01 A301 RMK A01 T00210009  RH  092%=      5-min Rain = 0
KWE2 231304Z 33005KT 02/01 A301 RMK A01 T00210008  RH  091%=      5-min Rain = 0
KWE2 231305Z 33005KT 02/01 A301 RMK A01 T00220008  RH  091%=      5-min Rain = 0
KWE2 231306Z 33004KT 02/01 A301 RMK A01 T00220008  RH  091%=      5-min Rain = 0
KWE2 231307Z 33004KT 02/01 A301 RMK A01 T00220008  RH  091%=      5-min Rain = 0
KWE2 231308Z 34004KT 02/01 A301 RMK A01 T00210007  RH  091%=      5-min Rain = 0
KWE2 231309Z 34004KT 02/01 A301 RMK A01 T00200007  RH  091%=      5-min Rain = 0
KWE2 231310Z 34004KT 02/01 A301 RMK A01 T00200007  RH  091%=      5-min Rain = 0
KWE2 231311Z 34004KT 02/01 A301 RMK A01 T00190007  RH  092%=      5-min Rain = 0
KWE2 231312Z 35005KT 02/01 A301 RMK A01 T00190008  RH  092%=      5-min Rain = 0
KWE2 231313Z 34004KT 02/01 A3011 RMK A01 T00190009  RH  093%=      5-min Rain = 0
KWE2 231314Z 34004KT 02/01 A3011 RMK A01 T00190009  RH  093%=      5-min Rain = 0
KWE2 231315Z 34004KT 02/01 A3011 RMK A01 T00190009  RH  094%=      5-min Rain = 0
KWE2 231316Z 34004KT 02/01 A3011 RMK A01 T00190010  RH  094%=      5-min Rain = 0
KWE2 231317Z 34004KT 02/01 A3011 RMK A01 T00190010  RH  094%=      5-min Rain = 0
KWE2 231318Z 34004KT 02/01 A3011 RMK A01 T00190009  RH  093%=      5-min Rain = 0
KWE2 231319Z 35004KT 02/01 A3011 RMK A01 T00190009  RH  093%=      5-min Rain = 0
KWE2 231320Z 35004KT 02/01 A3011 RMK A01 T00200010  RH  093%=      5-min Rain = 0
KWE2 231321Z 35005KT 02/01 A3011 RMK A01 T00200010  RH  093%=      5-min Rain = 0
KWE2 231322Z 35005KT 02/01 A3011 RMK A01 T00210010  RH  093%=      5-min Rain = 0
KWE2 231323Z 35005KT 02/01 A3011 RMK A01 T00210010  RH  092%=      5-min Rain = 0
KWE2 231324Z 35004KT 02/01 A3011 RMK A01 T00210009  RH  092%=      5-min Rain = 0
KWE2 231325Z 35004KT 02/01 A3011 RMK A01 T00200008  RH  092%=      5-min Rain = 0
KWE2 231326Z 35003KT 02/01 A3011 RMK A01 T00200008  RH  092%=      5-min Rain = 0
KWE2 231327Z 35004KT 02/01 A3011 RMK A01 T00190008  RH  092%=      5-min Rain = 0
KWE2 231328Z 35003KT 02/01 A3011 RMK A01 T00190008  RH  093%=      5-min Rain = 0
KWE2 231329Z 00003KT 02/01 A3011 RMK A01 T00190008  RH  093%=      5-min Rain = 0
KWE2 231330Z 01003KT 02/01 A3011 RMK A01 T00180007  RH  093%=      5-min Rain = 0
KWE2 231331Z 01004KT 02/01 A3011 RMK A01 T00170007  RH  093%=      5-min Rain = 0
KWE2 231332Z 01004KT 02/01 A3011 RMK A01 T00170007  RH  093%=      5-min Rain = 0
KWE2 231333Z 00004KT 02/01 A3011 RMK A01 T00170007  RH  094%=      5-min Rain = 0
KWE2 231334Z 00004KT 02/01 A3011 RMK A01 T00160008  RH  094%=      5-min Rain = 0
KWE2 231335Z 36004KT 02/01 A3011 RMK A01 T00160008  RH  095%=      5-min Rain = 0
KWE2 231336Z 00005KT 02/01 A3011 RMK A01 T00160009  RH  095%=      5-min Rain = 0
KWE2 231337Z 00005KT 02/01 A3011 RMK A01 T00160009  RH  095%=      5-min Rain = 0
KWE2 231338Z 00005KT 02/01 A3011 RMK A01 T00170009  RH  095%=      5-min Rain = 0
KWE2 231339Z 00005KT 02/01 A3012 RMK A01 T00170008  RH  094%=      5-min Rain = 0
KWE2 231340Z 00005KT 02/01 A3012 RMK A01 T00170008  RH  094%=      5-min Rain = 0
KWE2 231341Z 00005KT 02/01 A3012 RMK A01 T00170009  RH  094%=      5-min Rain = 0
KWE2 231342Z 36006KT 02/01 A3012 RMK A01 T00170009  RH  095%=      5-min Rain = 0
KWE2 231343Z 36006KT 02/01 A3012 RMK A01 T00160009  RH  095%=      5-min Rain = 0
KWE2 231344Z 36005KT 02/01 A3012 RMK A01 T00160010  RH  096%=      5-min Rain = 0
KWE2 231345Z 00005KT 02/01 A3012 RMK A01 T00170011  RH  096%=      5-min Rain = 0
KWE2 231346Z 00005KT 02/01 A3012 RMK A01 T00180011  RH  095%=      5-min Rain = 0
KWE2 231347Z 36005KT 02/01 A3012 RMK A01 T00190011  RH  094%=      5-min Rain = 0
KWE2 231348Z 00005KT 02/01 A3012 RMK A01 T00190010  RH  094%=      5-min Rain = 0
KWE2 231349Z 00005KT 02/01 A3013 RMK A01 T00190010  RH  094%=      5-min Rain = 0
KWE2 231350Z 00005KT 02/01 A3013 RMK A01 T00190010  RH  094%=      5-min Rain = 0
KWE2 231351Z 36005KT 02/01 A3013 RMK A01 T00190010  RH  094%=      5-min Rain = 0
KWE2 231352Z 00005KT 02/01 A3013 RMK A01 T00190010  RH  094%=      5-min Rain = 0
KWE2 231353Z 36005KT 02/01 A3013 RMK A01 T00190011  RH  094%=      5-min Rain = 0
KWE2 231354Z 36004KT 02/01 A3013 RMK A01 T00200011  RH  094%=      5-min Rain = 0
KWE2 231355Z 00004KT 02/01 A3013 RMK A01 T00200011  RH  094%=      5-min Rain = 0
KWE2 231356Z 36004KT 02/01 A3013 RMK A01 T00210012  RH  094%=      5-min Rain = 0
KWE2 231357Z 35004KT 02/01 A3013 RMK A01 T00220013  RH  093%=      5-min Rain = 0
KWE2 231358Z 35005KT 02/01 A3013 RMK A01 T00230013  RH  093%=      5-min Rain = 0
KWE2 231359Z 35005KT 02/01 A3013 RMK A01 T00230013  RH  093%=      5-min Rain = 0
KWE2 231400Z 00004KT 02/01 A3013 RMK A01 T00240013  RH  093%=      5-min Rain = 0
KWE2 231401Z 00005KT 02/01 A3013 RMK A01 T00240014  RH  093%=      5-min Rain = 0
KWE2 231402Z 35005KT 02/01 A3013 RMK A01 T00240014  RH  093%=      5-min Rain = 0
KWE2 231403Z 34005KT 02/01 A3013 RMK A01 T00240014  RH  093%=      5-min Rain = 0
KWE2 231404Z 36006KT 03/01 A3014 RMK A01 T00250013  RH  092%=      5-min Rain = 0
KWE2 231405Z 36006KT 03/01 A3014 RMK A01 T00250013  RH  092%=      5-min Rain = 0
KWE2 231406Z 35007KT 03/01 A3014 RMK A01 T00250013  RH  092%=      5-min Rain = 0
KWE2 231407Z 35006KT 03/01 A3014 RMK A01 T00250012  RH  091%=      5-min Rain = 0
KWE2 231408Z 36007KT 03/01 A3014 RMK A01 T00250013  RH  091%=      5-min Rain = 0
KWE2 231409Z 36008KT 03/01 A3014 RMK A01 T00250013  RH  092%=      5-min Rain = 0
KWE2 231410Z 35007KT 03/01 A3014 RMK A01 T00250013  RH  091%=      5-min Rain = 0
KWE2 231411Z 35006KT 03/01 A3014 RMK A01 T00250013  RH  091%=      5-min Rain = 0
KWE2 231412Z 35006KT 03/01 A3014 RMK A01 T00250013  RH  092%=      5-min Rain = 0
KWE2 231413Z 35006KT 03/01 A3014 RMK A01 T00250013  RH  092%=      5-min Rain = 0
KWE2 231414Z 35006KT 03/01 A3014 RMK A01 T00260014  RH  092%=      5-min Rain = 0
KWE2 231415Z 36005KT 03/01 A3014 RMK A01 T00260014  RH  092%=      5-min Rain = 0
KWE2 231416Z 35005KT 03/02 A3014 RMK A01 T00270015  RH  092%=      5-min Rain = 0
KWE2 231417Z 35005KT 03/02 A3014 RMK A01 T00270015  RH  092%=      5-min Rain = 0
KWE2 231418Z 34003KT 03/01 A3014 RMK A01 T00270014  RH  091%=      5-min Rain = 0
KWE2 231419Z 34004KT 03/01 A3014 RMK A01 T00270014  RH  091%=      5-min Rain = 0
KWE2 231420Z 35006KT 03/01 A3014 RMK A01 T00270013  RH  090%=      5-min Rain = 0
KWE2 231421Z 34004KT 03/01 A3014 RMK A01 T00280013  RH  090%=      5-min Rain = 0
KWE2 231422Z 34005KT 03/01 A3014 RMK A01 T00290014  RH  090%=      5-min Rain = 0
KWE2 231423Z 34005KT 03/01 A3014 RMK A01 T00290013  RH  089%=      5-min Rain = 0
KWE2 231424Z 34007KT 03/01 A3014 RMK A01 T00290012  RH  089%=      5-min Rain = 0
KWE2 231425Z 34007KT 03/01 A3014 RMK A01 T00290011  RH  088%=      5-min Rain = 0
KWE2 231426Z 34006KT 03/01 A3014 RMK A01 T00300010  RH  087%=      5-min Rain = 0
KWE2 231427Z 33006KT 03/01 A3014 RMK A01 T00300012  RH  087%=      5-min Rain = 0
KWE2 231428Z 34007KT 03/01 A3014 RMK A01 T00310011  RH  087%=      5-min Rain = 0
KWE2 231429Z 33008KT 03/01 A3014 RMK A01 T00310010  RH  086%=      5-min Rain = 0
KWE2 231430Z 34007KT 03/01 A3014 RMK A01 T00310012  RH  087%=      5-min Rain = 0
KWE2 231431Z 34007KT 03/01 A3014 RMK A01 T00320012  RH  087%=      5-min Rain = 0
KWE2 231432Z 34009KT 03/01 A3015 RMK A01 T00320012  RH  086%=      5-min Rain = 0
KWE2 231433Z 34009KT 03/01 A3015 RMK A01 T00330010  RH  085%=      5-min Rain = 0
KWE2 231434Z 34007KT 03/01 A3015 RMK A01 T00330011  RH  086%=      5-min Rain = 0
KWE2 231435Z 34010KT 03/01 A3015 RMK A01 T00330011  RH  085%=      5-min Rain = 0
KWE2 231436Z 34009KT 03/01 A3015 RMK A01 T00330010  RH  085%=      5-min Rain = 0
KWE2 231437Z 33011KT 03/01 A3015 RMK A01 T00330009  RH  084%=      5-min Rain = 0
KWE2 231438Z 33011KT 03/01 A3015 RMK A01 T00330008  RH  084%=      5-min Rain = 0
KWE2 231439Z 33010KT 03/01 A3015 RMK A01 T00330008  RH  084%=      5-min Rain = 0
KWE2 231440Z 33009KT 03/01 A3015 RMK A01 T00320008  RH  084%=      5-min Rain = 0
KWE2 231441Z 34008KT 03/01 A3015 RMK A01 T00330009  RH  085%=      5-min Rain = 0
KWE2 231442Z 33008KT 03/01 A3015 RMK A01 T00330010  RH  085%=      5-min Rain = 0
KWE2 231443Z 33010KT 03/01 A3015 RMK A01 T00330009  RH  084%=      5-min Rain = 0
KWE2 231444Z 33009KT 03/01 A3015 RMK A01 T00340010  RH  084%=      5-min Rain = 0
KWE2 231445Z 33010KT 03/01 A3015 RMK A01 T00340010  RH  084%=      5-min Rain = 0
KWE2 231446Z 33011KT 03/01 A3015 RMK A01 T00340010  RH  084%=      5-min Rain = 0
KWE2 231447Z 33010KT 04/01 A3015 RMK A01 T00350010  RH  084%=      5-min Rain = 0
KWE2 231448Z 34009KT 04/01 A3015 RMK A01 T00350010  RH  084%=      5-min Rain = 0
KWE2 231449Z 33009KT 04/01 A3015 RMK A01 T00350009  RH  083%=      5-min Rain = 0
KWE2 231450Z 33011KT 04/01 A3015 RMK A01 T00350009  RH  083%=      5-min Rain = 0
KWE2 231451Z 33011KT 04/01 A3015 RMK A01 T00350009  RH  083%=      5-min Rain = 0
KWE2 231452Z 34010KT 04/01 A3016 RMK A01 T00350009  RH  083%=      5-min Rain = 0
KWE2 231453Z 33010KT 04/01 A3016 RMK A01 T00350009  RH  083%=      5-min Rain = 0
KWE2 231454Z 34009KT 04/01 A3016 RMK A01 T00360011  RH  084%=      5-min Rain = 0
KWE2 231455Z 34008KT 04/01 A3016 RMK A01 T00370012  RH  084%=      5-min Rain = 0
KWE2 231456Z 34008KT 04/01 A3016 RMK A01 T00380011  RH  083%=      5-min Rain = 0
KWE2 231457Z 33008KT 04/01 A3016 RMK A01 T00380012  RH  083%=      5-min Rain = 0
KWE2 231458Z 33008KT 04/01 A3016 RMK A01 T00390013  RH  083%=      5-min Rain = 0
KWE2 231459Z 33007KT 04/01 A3016 RMK A01 T00400014  RH  083%=      5-min Rain = 0
KWE2 231500Z 34010KT 04/01 A3016 RMK A01 T00410013  RH  082%=      5-min Rain = 0
KWE2 231501Z 34009KT 04/01 A3016 RMK A01 T00400011  RH  081%=      5-min Rain = 0
KWE2 231502Z 33010KT 04/01 A3016 RMK A01 T00400011  RH  082%=      5-min Rain = 0
KWE2 231503Z 33008KT 04/01 A3016 RMK A01 T00400011  RH  082%=      5-min Rain = 0
KWE2 231504Z 33008KT 04/01 A3016 RMK A01 T00400013  RH  082%=      5-min Rain = 0
KWE2 231505Z 33008KT 04/01 A3016 RMK A01 T00420013  RH  082%=      5-min Rain = 0
KWE2 231506Z 34008KT 04/01 A3016 RMK A01 T00420012  RH  081%=      5-min Rain = 0
KWE2 231507Z 34008KT 04/01 A3016 RMK A01 T00430013  RH  081%=      5-min Rain = 0
KWE2 231508Z 34006KT 04/01 A3016 RMK A01 T00430013  RH  081%=      5-min Rain = 0
KWE2 231509Z 34008KT 04/01 A3016 RMK A01 T00440014  RH  081%=      5-min Rain = 0
KWE2 231510Z 34009KT 05/01 A3016 RMK A01 T00450014  RH  080%=      5-min Rain = 0
KWE2 231511Z 33009KT 05/01 A3016 RMK A01 T00450012  RH  079%=      5-min Rain = 0
KWE2 231512Z 33012KT 05/01 A3016 RMK A01 T00450011  RH  079%=      5-min Rain = 0
KWE2 231513Z 33011KT 05/01 A3017 RMK A01 T00450010  RH  078%=      5-min Rain = 0
KWE2 231514Z 33011KT 04/01 A3017 RMK A01 T00440010  RH  079%=      5-min Rain = 0
KWE2 231515Z 33010KT 04/01 A3017 RMK A01 T00440010  RH  078%=      5-min Rain = 0
KWE2 231516Z 33008KT 05/01 A3017 RMK A01 T00450011  RH  079%=      5-min Rain = 0
KWE2 231517Z 33010KT 05/01 A3017 RMK A01 T00460012  RH  078%=      5-min Rain = 0
KWE2 231518Z 33010KT 05/01 A3017 RMK A01 T00470012  RH  078%=      5-min Rain = 0
KWE2 231519Z 33009KT 05/01 A3017 RMK A01 T00470012  RH  078%=      5-min Rain = 0
KWE2 231520Z 33009KT 05/01 A3017 RMK A01 T00470012  RH  078%=      5-min Rain = 0
KWE2 231521Z 34008KT 05/01 A3017 RMK A01 T00480013  RH  078%=      5-min Rain = 0
KWE2 231522Z 33007KT 05/02 A3017 RMK A01 T00500015  RH  078%=      5-min Rain = 0
KWE2 231523Z 33008KT 05/02 A3017 RMK A01 T00510016  RH  078%=      5-min Rain = 0
KWE2 231524Z 33007KT 05/02 A3017 RMK A01 T00520015  RH  077%=      5-min Rain = 0
KWE2 231525Z 33009KT 05/02 A3017 RMK A01 T00530015  RH  076%=      5-min Rain = 0
KWE2 231526Z 33009KT 05/01 A3017 RMK A01 T00530014  RH  076%=      5-min Rain = 0
KWE2 231527Z 32009KT 05/01 A3017 RMK A01 T00530013  RH  075%=      5-min Rain = 0
KWE2 231528Z 32011KT 05/01 A3017 RMK A01 T00540012  RH  075%=      5-min Rain = 0
KWE2 231529Z 32011KT 05/01 A3017 RMK A01 T00540012  RH  074%=      5-min Rain = 0
KWE2 231530Z 32010KT 06/01 A3018 RMK A01 T00550012  RH  074%=      5-min Rain = 0
KWE2 231531Z 33011KT 06/01 A3018 RMK A01 T00550012  RH  074%=      5-min Rain = 0
KWE2 231532Z 33010KT 06/01 A3018 RMK A01 T00560013  RH  074%=      5-min Rain = 0
KWE2 231533Z 33008KT 06/01 A3018 RMK A01 T00560013  RH  074%=      5-min Rain = 0
KWE2 231534Z 32010KT 06/02 A3018 RMK A01 T00570015  RH  074%=      5-min Rain = 0
KWE2 231535Z 32010KT 06/01 A3018 RMK A01 T00580012  RH  073%=      5-min Rain = 0
KWE2 231536Z 32012KT 06/01 A3018 RMK A01 T00570013  RH  073%=      5-min Rain = 0
KWE2 231537Z 32011KT 06/01 A3018 RMK A01 T00570012  RH  073%=      5-min Rain = 0
KWE2 231538Z 32009KT 06/01 A3018 RMK A01 T00570013  RH  074%=      5-min Rain = 0
KWE2 231539Z 33008KT 06/01 A3018 RMK A01 T00570012  RH  073%=      5-min Rain = 0
KWE2 231540Z 32007KT 06/01 A3018 RMK A01 T00570013  RH  073%=      5-min Rain = 0
KWE2 231541Z 32009KT 06/02 A3018 RMK A01 T00590015  RH  074%=      5-min Rain = 0
KWE2 231542Z 32009KT 06/01 A3018 RMK A01 T00590014  RH  073%=      5-min Rain = 0
KWE2 231543Z 32008KT 06/02 A3018 RMK A01 T00600015  RH  073%=      5-min Rain = 0
KWE2 231544Z 33008KT 06/02 A3018 RMK A01 T00600016  RH  073%=      5-min Rain = 0
KWE2 231545Z 32010KT 06/02 A3018 RMK A01 T00610015  RH  072%=      5-min Rain = 0
KWE2 231546Z 32010KT 06/01 A3018 RMK A01 T00600014  RH  072%=      5-min Rain = 0
KWE2 231547Z 32010KT 06/01 A3018 RMK A01 T00600014  RH  072%=      5-min Rain = 0
KWE2 231548Z 33010KT 06/01 A3019 RMK A01 T00610014  RH  072%=      5-min Rain = 0
KWE2 231549Z 33011KT 06/01 A3019 RMK A01 T00610013  RH  071%=      5-min Rain = 0
KWE2 231550Z 33010KT 06/01 A3019 RMK A01 T00610014  RH  072%=      5-min Rain = 0
KWE2 231551Z 33008KT 06/02 A3019 RMK A01 T00620015  RH  072%=      5-min Rain = 0
KWE2 231552Z 31010KT 06/02 A3019 RMK A01 T00630016  RH  072%=      5-min Rain = 0
KWE2 231553Z 32010KT 06/01 A3019 RMK A01 T00640014  RH  071%=      5-min Rain = 0
KWE2 231554Z 32011KT 06/01 A3019 RMK A01 T00630014  RH  071%=      5-min Rain = 0
KWE2 231555Z 32010KT 06/01 A3019 RMK A01 T00630014  RH  071%=      5-min Rain = 0
KWE2 231556Z 32006KT 06/02 A3019 RMK A01 T00640016  RH  071%=      5-min Rain = 0
KWE2 231557Z 32008KT 07/02 A3019 RMK A01 T00650017  RH  072%=      5-min Rain = 0
KWE2 231558Z 31009KT 07/02 A3019 RMK A01 T00670017  RH  071%=      5-min Rain = 0
KWE2 231559Z 33009KT 07/02 A3019 RMK A01 T00670016  RH  070%=      5-min Rain = 0
KWE2 231600Z 33011KT 07/02 A3019 RMK A01 T00660016  RH  070%=      5-min Rain = 0
KWE2 231601Z 32009KT 07/02 A3019 RMK A01 T00660016  RH  070%=      5-min Rain = 0
KWE2 231602Z 33009KT 07/02 A3019 RMK A01 T00660016  RH  070%=      5-min Rain = 0
KWE2 231603Z 32008KT 07/02 A3019 RMK A01 T00670018  RH  071%=      5-min Rain = 0
KWE2 231604Z 32010KT 07/02 A3019 RMK A01 T00680017  RH  070%=      5-min Rain = 0
KWE2 231605Z 33008KT 07/02 A3019 RMK A01 T00670018  RH  071%=      5-min Rain = 0
KWE2 231606Z 32009KT 07/02 A3019 RMK A01 T00680017  RH  070%=      5-min Rain = 0
KWE2 231607Z 32009KT 07/02 A3019 RMK A01 T00680018  RH  070%=      5-min Rain = 0
KWE2 231608Z 32010KT 07/02 A3019 RMK A01 T00690018  RH  070%=      5-min Rain = 0
KWE2 231609Z 31010KT 07/02 A3019 RMK A01 T00690017  RH  070%=      5-min Rain = 0
KWE2 231610Z 32011KT 07/02 A3019 RMK A01 T00700018  RH  070%=      5-min Rain = 0
KWE2 231611Z 33010KT 07/02 A3019 RMK A01 T00710018  RH  069%=      5-min Rain = 0
KWE2 231612Z 32010KT 07/02 A3019 RMK A01 T00710018  RH  069%=      5-min Rain = 0
KWE2 231613Z 32009KT 07/02 A3019 RMK A01 T00710018  RH  069%=      5-min Rain = 0
KWE2 231614Z 33011KT 07/02 A302 RMK A01 T00720018  RH  069%=      5-min Rain = 0
KWE2 231615Z 32010KT 07/02 A302 RMK A01 T00720018  RH  069%=      5-min Rain = 0
KWE2 231616Z 33010KT 07/02 A302 RMK A01 T00720018  RH  069%=      5-min Rain = 0
KWE2 231617Z 32010KT 08/02 A302 RMK A01 T00750021  RH  068%=      5-min Rain = 0
KWE2 231618Z 33010KT 08/02 A302 RMK A01 T00760019  RH  067%=      5-min Rain = 0
KWE2 231619Z 33011KT 08/02 A302 RMK A01 T00760019  RH  067%=      5-min Rain = 0
KWE2 231620Z 33009KT 08/02 A302 RMK A01 T00760019  RH  067%=      5-min Rain = 0
KWE2 231621Z 33010KT 08/02 A302 RMK A01 T00760020  RH  067%=      5-min Rain = 0
KWE2 231622Z 33012KT 08/02 A302 RMK A01 T00770018  RH  066%=      5-min Rain = 0
KWE2 231623Z 33013KT 08/02 A302 RMK A01 T00760016  RH  066%=      5-min Rain = 0
KWE2 231624Z 33011KT 08/02 A302 RMK A01 T00750017  RH  067%=      5-min Rain = 0
KWE2 231625Z 33011KT 08/02 A302 RMK A01 T00760019  RH  067%=      5-min Rain = 0
KWE2 231626Z 34012KT 08/02 A302 RMK A01 T00760018  RH  067%=      5-min Rain = 0
KWE2 231627Z 34012KT 08/02 A302 RMK A01 T00770018  RH  066%=      5-min Rain = 0
KWE2 231628Z 34011KT 08/02 A302 RMK A01 T00780018  RH  066%=      5-min Rain = 0
KWE2 231629Z 33011KT 08/02 A302 RMK A01 T00790019  RH  066%=      5-min Rain = 0
KWE2 231630Z 33010KT 08/02 A302 RMK A01 T00790019  RH  066%=      5-min Rain = 0
KWE2 231631Z 33010KT 08/02 A302 RMK A01 T00790018  RH  065%=      5-min Rain = 0
KWE2 231632Z 32011KT 08/02 A302 RMK A01 T00790019  RH  066%=      5-min Rain = 0
KWE2 231633Z 32011KT 08/02 A302 RMK A01 T00810019  RH  065%=      5-min Rain = 0
KWE2 231634Z 33009KT 08/02 A302 RMK A01 T00820020  RH  065%=      5-min Rain = 0
KWE2 231635Z 35009KT 08/02 A302 RMK A01 T00830020  RH  065%=      5-min Rain = 0
KWE2 231636Z 34008KT 08/02 A302 RMK A01 T00820020  RH  065%=      5-min Rain = 0
KWE2 231637Z 32010KT 08/02 A302 RMK A01 T00820021  RH  065%=      5-min Rain = 0
KWE2 231638Z 32009KT 08/02 A302 RMK A01 T00820020  RH  065%=      5-min Rain = 0
KWE2 231639Z 32009KT 08/02 A302 RMK A01 T00840021  RH  065%=      5-min Rain = 0
KWE2 231640Z 32011KT 09/02 A302 RMK A01 T00860022  RH  064%=      5-min Rain = 0
KWE2 231641Z 33010KT 09/02 A302 RMK A01 T00860019  RH  063%=      5-min Rain = 0
KWE2 231642Z 33009KT 08/02 A302 RMK A01 T00840019  RH  064%=      5-min Rain = 0
KWE2 231643Z 32009KT 08/02 A302 RMK A01 T00840019  RH  064%=      5-min Rain = 0
KWE2 231644Z 32009KT 08/02 A302 RMK A01 T00840019  RH  064%=      5-min Rain = 0
KWE2 231645Z 33010KT 09/02 A302 RMK A01 T00850019  RH  064%=      5-min Rain = 0
KWE2 231646Z 33008KT 09/02 A302 RMK A01 T00850020  RH  064%=      5-min Rain = 0
KWE2 231647Z 33011KT 09/02 A302 RMK A01 T00860021  RH  064%=      5-min Rain = 0
KWE2 231648Z 33010KT 09/02 A302 RMK A01 T00870020  RH  063%=      5-min Rain = 0
KWE2 231649Z 33010KT 09/02 A302 RMK A01 T00860019  RH  063%=      5-min Rain = 0
KWE2 231650Z 34008KT 09/02 A302 RMK A01 T00860021  RH  064%=      5-min Rain = 0
KWE2 231651Z 34008KT 09/02 A302 RMK A01 T00870022  RH  064%=      5-min Rain = 0
KWE2 231652Z 35010KT 09/02 A302 RMK A01 T00870022  RH  064%=      5-min Rain = 0
KWE2 231653Z 34010KT 09/02 A302 RMK A01 T00870021  RH  063%=      5-min Rain = 0
KWE2 231654Z 34008KT 09/02 A302 RMK A01 T00870022  RH  064%=      5-min Rain = 0
KWE2 231655Z 34006KT 09/02 A302 RMK A01 T00890023  RH  064%=      5-min Rain = 0
KWE2 231656Z 34009G14KT 09/03 A302 RMK A01 T00920026  RH  063%=      5-min Rain = 0
KWE2 231657Z 35013KT 09/02 A302 RMK A01 T00930023  RH  062%=      5-min Rain = 0
KWE2 231658Z 35011KT 09/02 A302 RMK A01 T00910022  RH  062%=      5-min Rain = 0
KWE2 231659Z 35009KT 09/02 A302 RMK A01 T00910024  RH  063%=      5-min Rain = 0
KWE2 231700Z 36013KT 09/02 A302 RMK A01 T00920023  RH  062%=      5-min Rain = 0
KWE2 231701Z 36012KT 09/02 A302 RMK A01 T00930023  RH  062%=      5-min Rain = 0
KWE2 231702Z 36011KT 09/02 A302 RMK A01 T00940024  RH  062%=      5-min Rain = 0
KWE2 231703Z 36009KT 10/03 A302 RMK A01 T00950025  RH  061%=      5-min Rain = 0
KWE2 231704Z 36009KT 10/03 A302 RMK A01 T00980028  RH  062%=      5-min Rain = 0
KWE2 231705Z 35009KT 10/03 A302 RMK A01 T01010029  RH  061%=      5-min Rain = 0
KWE2 231706Z 34012KT 10/03 A302 RMK A01 T01000025  RH  060%=      5-min Rain = 0
KWE2 231707Z 34012KT 10/02 A3019 RMK A01 T00990024  RH  060%=      5-min Rain = 0
KWE2 231708Z 35010KT 10/02 A3019 RMK A01 T00980024  RH  060%=      5-min Rain = 0
KWE2 231709Z 35009KT 10/03 A3019 RMK A01 T00970025  RH  061%=      5-min Rain = 0
KWE2 231710Z 34010KT 10/03 A3019 RMK A01 T00970025  RH  061%=      5-min Rain = 0
KWE2 231711Z 34010KT 10/03 A3019 RMK A01 T00980026  RH  061%=      5-min Rain = 0
KWE2 231712Z 33010KT 10/03 A3019 RMK A01 T00990027  RH  061%=      5-min Rain = 0
KWE2 231713Z 34009KT 10/03 A3019 RMK A01 T01000027  RH  060%=      5-min Rain = 0
KWE2 231714Z 35009KT 10/03 A3019 RMK A01 T01020028  RH  060%=      5-min Rain = 0
KWE2 231715Z 35010KT 10/03 A3019 RMK A01 T01040029  RH  060%=      5-min Rain = 0
KWE2 231716Z 33011KT 11/03 A3019 RMK A01 T01050027  RH  059%=      5-min Rain = 0
KWE2 231717Z 33010KT 10/03 A3019 RMK A01 T01030026  RH  059%=      5-min Rain = 0
KWE2 231718Z 34010KT 10/03 A3019 RMK A01 T01020026  RH  059%=      5-min Rain = 0
KWE2 231719Z 34012KT 10/03 A3019 RMK A01 T01020027  RH  060%=      5-min Rain = 0
KWE2 231720Z 34012KT 10/03 A3019 RMK A01 T01040026  RH  058%=      5-min Rain = 0
KWE2 231721Z 35009KT 10/03 A3019 RMK A01 T01040026  RH  059%=      5-min Rain = 0
KWE2 231722Z 35011KT 10/03 A3019 RMK A01 T01040027  RH  059%=      5-min Rain = 0
KWE2 231723Z 34012KT 11/03 A3019 RMK A01 T01050027  RH  058%=      5-min Rain = 0
KWE2 231724Z 35011KT 11/03 A3019 RMK A01 T01060026  RH  058%=      5-min Rain = 0
KWE2 231725Z 35012KT 11/03 A3019 RMK A01 T01070025  RH  057%=      5-min Rain = 0
KWE2 231726Z 35011KT 11/03 A3019 RMK A01 T01080026  RH  057%=      5-min Rain = 0
KWE2 231727Z 35011KT 11/03 A3019 RMK A01 T01090025  RH  056%=      5-min Rain = 0
KWE2 231728Z 34011KT 11/03 A3019 RMK A01 T01090025  RH  056%=      5-min Rain = 0
KWE2 231729Z 34009KT 11/03 A3019 RMK A01 T01100026  RH  056%=      5-min Rain = 0
KWE2 231730Z 34010KT 11/03 A3018 RMK A01 T01100026  RH  056%=      5-min Rain = 0
KWE2 231731Z 00010KT 11/03 A3018 RMK A01 T01140030  RH  056%=      5-min Rain = 0
KWE2 231732Z 35012KT 12/03 A3018 RMK A01 T01170026  RH  054%=      5-min Rain = 0
KWE2 231733Z 00010KT 12/02 A3018 RMK A01 T01150023  RH  053%=      5-min Rain = 0
KWE2 231734Z 00010KT 11/02 A3018 RMK A01 T01140024  RH  054%=      5-min Rain = 0
KWE2 231735Z 01010KT 11/03 A3018 RMK A01 T01140025  RH  054%=      5-min Rain = 0
KWE2 231736Z 34011KT 11/03 A3018 RMK A01 T01140027  RH  055%=      5-min Rain = 0
KWE2 231737Z 35012KT 12/03 A3018 RMK A01 T01160027  RH  054%=      5-min Rain = 0
KWE2 231738Z 34012KT 12/02 A3018 RMK A01 T01150024  RH  053%=      5-min Rain = 0
KWE2 231739Z 35011KT 12/02 A3018 RMK A01 T01150022  RH  053%=      5-min Rain = 0
KWE2 231740Z 01012KT 12/02 A3018 RMK A01 T01170022  RH  052%=      5-min Rain = 0
KWE2 231741Z 01009KT 12/02 A3018 RMK A01 T01170024  RH  053%=      5-min Rain = 0
KWE2 231742Z 35010KT 12/02 A3018 RMK A01 T01170024  RH  053%=      5-min Rain = 0
KWE2 231743Z 35011KT 12/02 A3018 RMK A01 T01190023  RH  052%=      5-min Rain = 0
KWE2 231744Z 36012KT 12/02 A3018 RMK A01 T01210020  RH  050%=      5-min Rain = 0
KWE2 231745Z 36011KT 12/02 A3018 RMK A01 T01210019  RH  050%=      5-min Rain = 0
KWE2 231746Z 35008KT 12/02 A3018 RMK A01 T01210020  RH  050%=      5-min Rain = 0
KWE2 231747Z 35007KT 12/03 A3018 RMK A01 T01210025  RH  052%=      5-min Rain = 0
KWE2 231748Z 35009KT 12/03 A3018 RMK A01 T01240025  RH  051%=      5-min Rain = 0
KWE2 231749Z 35010KT 13/02 A3018 RMK A01 T01260017  RH  048%=      5-min Rain = 0
KWE2 231750Z 35010KT 13/02 A3018 RMK A01 T01250016  RH  047%=      5-min Rain = 0
KWE2 231751Z 35011KT 13/02 A3018 RMK A01 T01250016  RH  047%=      5-min Rain = 0
KWE2 231752Z 36011KT 13/02 A3018 RMK A01 T01250017  RH  048%=      5-min Rain = 0
KWE2 231753Z 01011KT 13/02 A3018 RMK A01 T01250016  RH  047%=      5-min Rain = 0
KWE2 231754Z 35009KT 13/02 A3018 RMK A01 T01260017  RH  047%=      5-min Rain = 0
KWE2 231755Z 34010KT 13/02 A3018 RMK A01 T01270018  RH  047%=      5-min Rain = 0
KWE2 231756Z 35008KT 13/02 A3018 RMK A01 T01290019  RH  047%=      5-min Rain = 0
KWE2 231757Z 35009KT 13/02 A3018 RMK A01 T01310017  RH  046%=      5-min Rain = 0
KWE2 231758Z 36011KT 13/01 A3018 RMK A01 T01310013  RH  045%=      5-min Rain = 0
KWE2 231759Z 00011KT 13/01 A3018 RMK A01 T01310012  RH  044%=      5-min Rain = 0
KWE2 231800Z 35009KT 13/01 A3018 RMK A01 T01310012  RH  044%=      5-min Rain = 0
KWE2 231801Z 36011KT 13/02 A3018 RMK A01 T01340016  RH  044%=      5-min Rain = 0
KWE2 231802Z 36009KT 13/01 A3018 RMK A01 T01320013  RH  044%=      5-min Rain = 0
KWE2 231803Z 33009KT 13/02 A3018 RMK A01 T01300015  RH  046%=      5-min Rain = 0
KWE2 231804Z 33011KT 13/01 A3018 RMK A01 T01310012  RH  044%=      5-min Rain = 0
KWE2 231805Z 33011KT 13/01 A3018 RMK A01 T01310014  RH  045%=      5-min Rain = 0
KWE2 231806Z 34010KT 13/01 A3018 RMK A01 T01300014  RH  045%=      5-min Rain = 0
KWE2 231807Z 34011KT 13/01 A3018 RMK A01 T01300014  RH  045%=      5-min Rain = 0
KWE2 231808Z 34013KT 13/01 A3018 RMK A01 T01310011  RH  044%=      5-min Rain = 0
KWE2 231809Z 33011KT 13/01 A3018 RMK A01 T01320009  RH  043%=      5-min Rain = 0
KWE2 231810Z 34012KT 13/01 A3018 RMK A01 T01330010  RH  043%=      5-min Rain = 0
KWE2 231811Z 34010KT 13/01 A3018 RMK A01 T01320008  RH  042%=      5-min Rain = 0
KWE2 231812Z 35010KT 13/01 A3018 RMK A01 T01330005  RH  042%=      5-min Rain = 0
KWE2 231813Z 34012KT 13/01 A3018 RMK A01 T01340007  RH  042%=      5-min Rain = 0
KWE2 231814Z 35011KT 13/01 A3018 RMK A01 T01330008  RH  042%=      5-min Rain = 0
KWE2 231815Z 35011KT 14/00 A3018 RMK A01 T01350003  RH  040%=      5-min Rain = 0
KWE2 231816Z 33012KT 14/01 A3018 RMK A01 T01370005  RH  041%=      5-min Rain = 0
KWE2 231817Z 34010KT 14/01 A3018 RMK A01 T01370007  RH  041%=      5-min Rain = 0
KWE2 231818Z 33010KT 14/01 A3018 RMK A01 T01370007  RH  041%=      5-min Rain = 0
KWE2 231819Z 34011KT 14/01 A3018 RMK A01 T01390006  RH  040%=      5-min Rain = 0
KWE2 231820Z 34008KT 14/00 A3018 RMK A01 T01390002  RH  039%=      5-min Rain = 0
KWE2 231821Z 34010KT 14/00 A3017 RMK A01 T01400004  RH  039%=      5-min Rain = 0
KWE2 231822Z 35012KT 14/00 A3017 RMK A01 T01410001  RH  038%=      5-min Rain = 0
KWE2 231823Z 36011KT 14/M01 A3017 RMK A01 T01411009  RH  036%=      5-min Rain = 0
KWE2 231824Z 35010KT 14/M00 A3017 RMK A01 T01411004  RH  037%=      5-min Rain = 0
KWE2 231825Z 34012KT 14/M01 A3017 RMK A01 T01431005  RH  036%=      5-min Rain = 0
KWE2 231826Z 34012KT 15/M01 A3017 RMK A01 T01451011  RH  034%=      5-min Rain = 0
KWE2 231827Z 36010KT 15/M01 A3017 RMK A01 T01461012  RH  034%=      5-min Rain = 0
KWE2 231828Z 01014KT 15/M02 A3017 RMK A01 T01471017  RH  032%=      5-min Rain = 0
KWE2 231829Z 35012KT 15/M02 A3017 RMK A01 T01481018  RH  032%=      5-min Rain = 0
KWE2 231830Z 35012KT 15/M01 A3017 RMK A01 T01491013  RH  033%=      5-min Rain = 0
KWE2 231831Z 35011KT 15/M02 A3017 RMK A01 T01471016  RH  032%=      5-min Rain = 0
KWE2 231832Z 36010KT 15/M01 A3017 RMK A01 T01461014  RH  033%=      5-min Rain = 0
KWE2 231833Z 34015KT 15/M02 A3017 RMK A01 T01491020  RH  031%=      5-min Rain = 0
KWE2 231834Z 33013KT 15/M03 A3017 RMK A01 T01491030  RH  029%=      5-min Rain = 0
KWE2 231835Z 33013KT 15/M03 A3017 RMK A01 T01481029  RH  029%=      5-min Rain = 0
KWE2 231836Z 33015KT 15/M03 A3017 RMK A01 T01491031  RH  029%=      5-min Rain = 0
KWE2 231837Z 33013KT 15/M03 A3017 RMK A01 T01491030  RH  029%=      5-min Rain = 0
KWE2 231838Z 33013KT 15/M03 A3017 RMK A01 T01501031  RH  029%=      5-min Rain = 0
KWE2 231839Z 00012KT 15/M03 A3017 RMK A01 T01491031  RH  029%=      5-min Rain = 0
KWE2 231840Z 35012KT 15/M03 A3016 RMK A01 T01491034  RH  028%=      5-min Rain = 0
KWE2 231841Z 34011KT 15/M03 A3016 RMK A01 T01491034  RH  028%=      5-min Rain = 0
KWE2 231842Z 34013G18KT 15/M04 A3016 RMK A01 T01511040  RH  026%=      5-min Rain = 0
KWE2 231843Z 34015KT 15/M04 A3016 RMK A01 T01541042  RH  026%=      5-min Rain = 0
KWE2 231844Z 34016KT 15/M05 A3016 RMK A01 T01541048  RH  024%=      5-min Rain = 0
KWE2 231845Z 34014KT 15/M05 A3016 RMK A01 T01521050  RH  024%=      5-min Rain = 0
KWE2 231846Z 34012KT 15/M05 A3016 RMK A01 T01511046  RH  025%=      5-min Rain = 0
KWE2 231847Z 34010KT 15/M04 A3016 RMK A01 T01521043  RH  026%=      5-min Rain = 0
KWE2 231848Z 35014KT 16/M04 A3016 RMK A01 T01551042  RH  026%=      5-min Rain = 0
KWE2 231849Z 34015KT 16/M04 A3016 RMK A01 T01551044  RH  025%=      5-min Rain = 0
KWE2 231850Z 35014KT 15/M04 A3016 RMK A01 T01531042  RH  026%=      5-min Rain = 0
KWE2 231851Z 35011KT 15/M04 A3016 RMK A01 T01521039  RH  027%=      5-min Rain = 0
KWE2 231852Z 36012KT 15/M04 A3016 RMK A01 T01531036  RH  027%=      5-min Rain = 0
KWE2 231853Z 36012KT 15/M04 A3016 RMK A01 T01531037  RH  027%=      5-min Rain = 0
KWE2 231854Z 35012KT 15/M04 A3016 RMK A01 T01531037  RH  027%=      5-min Rain = 0
KWE2 231855Z 34014KT 15/M04 A3016 RMK A01 T01521036  RH  027%=      5-min Rain = 0
KWE2 231856Z 35014KT 15/M04 A3016 RMK A01 T01541036  RH  027%=      5-min Rain = 0
KWE2 231857Z 35014KT 16/M04 A3016 RMK A01 T01551038  RH  026%=      5-min Rain = 0
KWE2 231858Z 34013KT 15/M04 A3016 RMK A01 T01541041  RH  026%=      5-min Rain = 0
KWE2 231859Z 34010KT 15/M04 A3016 RMK A01 T01531043  RH  026%=      5-min Rain = 0
KWE2 231900Z 33011G16KT 16/M04 A3016 RMK A01 T01551041  RH  026%=      5-min Rain = 0
KWE2 231901Z 33016KT 16/M05 A3016 RMK A01 T01561049  RH  024%=      5-min Rain = 0
KWE2 231902Z 33013KT 16/M05 A3016 RMK A01 T01561053  RH  023%=      5-min Rain = 0
KWE2 231903Z 35014KT 16/M05 A3016 RMK A01 T01561049  RH  024%=      5-min Rain = 0
KWE2 231904Z 34013KT 16/M05 A3015 RMK A01 T01561048  RH  024%=      5-min Rain = 0
KWE2 231905Z 35011KT 16/M05 A3015 RMK A01 T01551048  RH  024%=      5-min Rain = 0
KWE2 231906Z 34014KT 16/M05 A3015 RMK A01 T01581045  RH  025%=      5-min Rain = 0
KWE2 231907Z 34014KT 16/M05 A3015 RMK A01 T01601054  RH  023%=      5-min Rain = 0
KWE2 231908Z 34013KT 16/M06 A3015 RMK A01 T01591056  RH  022%=      5-min Rain = 0
KWE2 231909Z 33013KT 16/M06 A3015 RMK A01 T01581055  RH  023%=      5-min Rain = 0
KWE2 231910Z 35014KT 16/M05 A3015 RMK A01 T01581053  RH  023%=      5-min Rain = 0
KWE2 231911Z 34013KT 16/M05 A3015 RMK A01 T01581052  RH  023%=      5-min Rain = 0
KWE2 231912Z 33014KT 16/M05 A3015 RMK A01 T01591053  RH  023%=      5-min Rain = 0
KWE2 231913Z 32011KT 16/M05 A3015 RMK A01 T01581054  RH  023%=      5-min Rain = 0
KWE2 231914Z 33012KT 16/M05 A3015 RMK A01 T01581051  RH  023%=      5-min Rain = 0
KWE2 231915Z 35013KT 16/M05 A3015 RMK A01 T01601049  RH  023%=      5-min Rain = 0
KWE2 231916Z 35012KT 16/M05 A3015 RMK A01 T01601051  RH  023%=      5-min Rain = 0
KWE2 231917Z 34014KT 16/M05 A3015 RMK A01 T01591051  RH  023%=      5-min Rain = 0
KWE2 231918Z 35015KT 16/M05 A3015 RMK A01 T01591047  RH  024%=      5-min Rain = 0
KWE2 231919Z 35014KT 16/M05 A3015 RMK A01 T01611048  RH  023%=      5-min Rain = 0
KWE2 231920Z 35013KT 16/M05 A3015 RMK A01 T01611045  RH  024%=      5-min Rain = 0
KWE2 231921Z 34012KT 16/M05 A3015 RMK A01 T01611045  RH  024%=      5-min Rain = 0
KWE2 231922Z 35010KT 16/M04 A3015 RMK A01 T01601043  RH  024%=      5-min Rain = 0
KWE2 231923Z 35011KT 16/M04 A3015 RMK A01 T01631038  RH  025%=      5-min Rain = 0
KWE2 231924Z 34013KT 16/M04 A3014 RMK A01 T01641038  RH  025%=      5-min Rain = 0
KWE2 231925Z 35015KT 17/M04 A3014 RMK A01 T01661039  RH  024%=      5-min Rain = 0
KWE2 231926Z 35015KT 17/M04 A3014 RMK A01 T01651044  RH  024%=      5-min Rain = 0
KWE2 231927Z 34012KT 16/M04 A3014 RMK A01 T01621041  RH  025%=      5-min Rain = 0
KWE2 231928Z 33014KT 16/M04 A3014 RMK A01 T01621044  RH  024%=      5-min Rain = 0
KWE2 231929Z 33013KT 16/M05 A3014 RMK A01 T01621052  RH  023%=      5-min Rain = 0
KWE2 231930Z 34014KT 16/M06 A3014 RMK A01 T01621055  RH  022%=      5-min Rain = 0
KWE2 231931Z 34013KT 16/M05 A3014 RMK A01 T01621053  RH  022%=      5-min Rain = 0
KWE2 231932Z 34011KT 16/M05 A3014 RMK A01 T01621051  RH  023%=      5-min Rain = 0
KWE2 231933Z 34016KT 16/M06 A3014 RMK A01 T01631055  RH  022%=      5-min Rain = 0
KWE2 231934Z 33016KT 16/M06 A3014 RMK A01 T01621061  RH  021%=      5-min Rain = 0
KWE2 231935Z 33016KT 16/M06 A3014 RMK A01 T01621061  RH  021%=      5-min Rain = 0
KWE2 231936Z 33015KT 16/M06 A3014 RMK A01 T01621061  RH  021%=      5-min Rain = 0
KWE2 231937Z 34015KT 16/M06 A3014 RMK A01 T01611060  RH  021%=      5-min Rain = 0
KWE2 231938Z 32014KT 16/M06 A3014 RMK A01 T01611059  RH  022%=      5-min Rain = 0
KWE2 231939Z 32013KT 16/M06 A3014 RMK A01 T01621059  RH  021%=      5-min Rain = 0
KWE2 231940Z 32015KT 16/M06 A3014 RMK A01 T01621062  RH  021%=      5-min Rain = 0
KWE2 231941Z 33013G18KT 16/M06 A3014 RMK A01 T01611059  RH  021%=      5-min Rain = 0
KWE2 231942Z 33012KT 16/M06 A3014 RMK A01 T01601059  RH  022%=      5-min Rain = 0
KWE2 231943Z 33016KT 16/M06 A3014 RMK A01 T01611058  RH  022%=      5-min Rain = 0
KWE2 231944Z 33015KT 16/M06 A3014 RMK A01 T01631061  RH  021%=      5-min Rain = 0
KWE2 231945Z 33010KT 16/M06 A3014 RMK A01 T01631060  RH  021%=      5-min Rain = 0
KWE2 231946Z 34011KT 17/M06 A3014 RMK A01 T01651055  RH  022%=      5-min Rain = 0
KWE2 231947Z 33010KT 17/M06 A3014 RMK A01 T01651057  RH  021%=      5-min Rain = 0
KWE2 231948Z 33015G20KT 16/M06 A3014 RMK A01 T01641058  RH  021%=      5-min Rain = 0
KWE2 231949Z 34017KT 16/M06 A3014 RMK A01 T01641060  RH  021%=      5-min Rain = 0
KWE2 231950Z 34012G17KT 16/M06 A3014 RMK A01 T01641058  RH  021%=      5-min Rain = 0
KWE2 231951Z 32013KT 17/M06 A3014 RMK A01 T01661056  RH  021%=      5-min Rain = 0
KWE2 231952Z 32013KT 17/M06 A3014 RMK A01 T01651061  RH  021%=      5-min Rain = 0
KWE2 231953Z 33010G15KT 17/M06 A3014 RMK A01 T01651056  RH  021%=      5-min Rain = 0
KWE2 231954Z 32009KT 17/M05 A3014 RMK A01 T01681053  RH  022%=      5-min Rain = 0
KWE2 231955Z 33010KT 17/M05 A3014 RMK A01 T01691052  RH  022%=      5-min Rain = 0
KWE2 231956Z 32013G18KT 17/M06 A3014 RMK A01 T01691055  RH  021%=      5-min Rain = 0
KWE2 231957Z 32016KT 17/M06 A3014 RMK A01 T01671057  RH  021%=      5-min Rain = 0
KWE2 231958Z 32015KT 17/M05 A3014 RMK A01 T01661054  RH  022%=      5-min Rain = 0
KWE2 231959Z 32016KT 17/M05 A3014 RMK A01 T01651054  RH  022%=      5-min Rain = 0
KWE2 232000Z 33016KT 17/M05 A3014 RMK A01 T01661053  RH  022%=      5-min Rain = 0
KWE2 232001Z 32013KT 17/M05 A3014 RMK A01 T01661053  RH  022%=      5-min Rain = 0
KWE2 232002Z 32013KT 17/M05 A3014 RMK A01 T01651052  RH  022%=      5-min Rain = 0
KWE2 232003Z 32013KT 17/M05 A3014 RMK A01 T01661052  RH  022%=      5-min Rain = 0
KWE2 232004Z 33010KT 17/M05 A3014 RMK A01 T01651051  RH  022%=      5-min Rain = 0
KWE2 232005Z 32014G19KT 17/M05 A3014 RMK A01 T01671048  RH  022%=      5-min Rain = 0
KWE2 232006Z 33014KT 17/M05 A3014 RMK A01 T01671050  RH  022%=      5-min Rain = 0
KWE2 232007Z 33012KT 17/M05 A3014 RMK A01 T01661049  RH  023%=      5-min Rain = 0
KWE2 232008Z 33016KT 17/M05 A3014 RMK A01 T01651050  RH  022%=      5-min Rain = 0
KWE2 232009Z 32014G19KT 16/M05 A3013 RMK A01 T01641051  RH  023%=      5-min Rain = 0
KWE2 232010Z 32015KT 16/M05 A3013 RMK A01 T01641048  RH  023%=      5-min Rain = 0
KWE2 232011Z 33012KT 16/M05 A3013 RMK A01 T01641050  RH  023%=      5-min Rain = 0
KWE2 232012Z 33011G17KT 16/M05 A3013 RMK A01 T01641049  RH  023%=      5-min Rain = 0
KWE2 232013Z 34014KT 16/M05 A3013 RMK A01 T01641047  RH  023%=      5-min Rain = 0
KWE2 232014Z 33015KT 17/M05 A3013 RMK A01 T01661046  RH  023%=      5-min Rain = 0
KWE2 232015Z 34015KT 17/M05 A3013 RMK A01 T01661048  RH  023%=      5-min Rain = 0
KWE2 232016Z 35015KT 17/M05 A3013 RMK A01 T01671050  RH  022%=      5-min Rain = 0
KWE2 232017Z 35014KT 17/M05 A3013 RMK A01 T01661051  RH  022%=      5-min Rain = 0
KWE2 232018Z 33013KT 17/M05 A3013 RMK A01 T01671050  RH  022%=      5-min Rain = 0
KWE2 232019Z 31012KT 17/M05 A3013 RMK A01 T01681048  RH  022%=      5-min Rain = 0
KWE2 232020Z 33010KT 17/M05 A3013 RMK A01 T01691048  RH  022%=      5-min Rain = 0
KWE2 232021Z 34015KT 17/M05 A3013 RMK A01 T01691050  RH  022%=      5-min Rain = 0
KWE2 232022Z 34015KT 17/M05 A3013 RMK A01 T01681054  RH  021%=      5-min Rain = 0
KWE2 232023Z 33013KT 17/M05 A3013 RMK A01 T01681054  RH  021%=      5-min Rain = 0
KWE2 232024Z 34013KT 17/M06 A3013 RMK A01 T01681055  RH  021%=      5-min Rain = 0
KWE2 232025Z 33010KT 17/M05 A3013 RMK A01 T01671054  RH  021%=      5-min Rain = 0
KWE2 232026Z 33012KT 17/M05 A3013 RMK A01 T01691053  RH  022%=      5-min Rain = 0
KWE2 232027Z 31013KT 17/M05 A3013 RMK A01 T01691053  RH  021%=      5-min Rain = 0
KWE2 232028Z 31015KT 17/M06 A3013 RMK A01 T01691055  RH  021%=      5-min Rain = 0
KWE2 232029Z 31013KT 17/M06 A3013 RMK A01 T01671056  RH  021%=      5-min Rain = 0
KWE2 232030Z 34015KT 17/M06 A3013 RMK A01 T01661055  RH  021%=      5-min Rain = 0
KWE2 232031Z 34013KT 17/M06 A3013 RMK A01 T01661057  RH  021%=      5-min Rain = 0
KWE2 232032Z 33013KT 17/M06 A3013 RMK A01 T01661055  RH  021%=      5-min Rain = 0
KWE2 232033Z 33012KT 17/M05 A3013 RMK A01 T01671054  RH  022%=      5-min Rain = 0
KWE2 232034Z 33010KT 17/M05 A3013 RMK A01 T01671053  RH  022%=      5-min Rain = 0
KWE2 232035Z 34010KT 17/M05 A3013 RMK A01 T01671052  RH  022%=      5-min Rain = 0
KWE2 232036Z 32014KT 17/M05 A3013 RMK A01 T01691049  RH  022%=      5-min Rain = 0
KWE2 232037Z 32015KT 17/M05 A3013 RMK A01 T01701052  RH  021%=      5-min Rain = 0
KWE2 232038Z 32013KT 17/M05 A3013 RMK A01 T01701054  RH  021%=      5-min Rain = 0
KWE2 232039Z 31012KT 17/M06 A3013 RMK A01 T01701055  RH  021%=      5-min Rain = 0
KWE2 232040Z 31012KT 17/M06 A3013 RMK A01 T01691057  RH  021%=      5-min Rain = 0
KWE2 232041Z 32012KT 17/M06 A3013 RMK A01 T01671056  RH  021%=      5-min Rain = 0
KWE2 232042Z 33017KT 17/M06 A3013 RMK A01 T01671056  RH  021%=      5-min Rain = 0
KWE2 232043Z 32015KT 17/M06 A3013 RMK A01 T01671058  RH  021%=      5-min Rain = 0
KWE2 232044Z 32011KT 17/M06 A3013 RMK A01 T01661058  RH  021%=      5-min Rain = 0
KWE2 232045Z 31016KT 17/M06 A3013 RMK A01 T01661058  RH  021%=      5-min Rain = 0
KWE2 232046Z 32016KT 17/M06 A3013 RMK A01 T01661059  RH  021%=      5-min Rain = 0
KWE2 232047Z 31015KT 17/M06 A3013 RMK A01 T01651058  RH  021%=      5-min Rain = 0
KWE2 232048Z 32015KT 17/M06 A3013 RMK A01 T01661058  RH  021%=      5-min Rain = 0
KWE2 232049Z 33014KT 17/M06 A3013 RMK A01 T01661056  RH  021%=      5-min Rain = 0
KWE2 232050Z 32013KT 17/M06 A3013 RMK A01 T01661055  RH  021%=      5-min Rain = 0
KWE2 232051Z 32012KT 17/M05 A3013 RMK A01 T01671054  RH  022%=      5-min Rain = 0
KWE2 232052Z 32016KT 17/M06 A3013 RMK A01 T01681056  RH  021%=      5-min Rain = 0
KWE2 232053Z 33014KT 17/M06 A3013 RMK A01 T01671057  RH  021%=      5-min Rain = 0
KWE2 232054Z 33013KT 17/M06 A3013 RMK A01 T01661056  RH  021%=      5-min Rain = 0
KWE2 232055Z 33014KT 17/M06 A3013 RMK A01 T01661056  RH  021%=      5-min Rain = 0
KWE2 232056Z 32013KT 17/M06 A3013 RMK A01 T01671059  RH  021%=      5-min Rain = 0
KWE2 232057Z 32014KT 17/M06 A3013 RMK A01 T01681059  RH  021%=      5-min Rain = 0
KWE2 232058Z 31011KT 17/M06 A3013 RMK A01 T01681059  RH  021%=      5-min Rain = 0
KWE2 232059Z 31012KT 17/M06 A3013 RMK A01 T01691057  RH  021%=      5-min Rain = 0
KWE2 232100Z 32012KT 17/M06 A3013 RMK A01 T01691055  RH  021%=      5-min Rain = 0
KWE2 232101Z 32010KT 17/M05 A3013 RMK A01 T01701052  RH  022%=      5-min Rain = 0
KWE2 232102Z 31016KT 17/M05 A3013 RMK A01 T01711053  RH  021%=      5-min Rain = 0
KWE2 232103Z 31015KT 17/M06 A3013 RMK A01 T01681055  RH  021%=      5-min Rain = 0
KWE2 232104Z 31012KT 17/M05 A3013 RMK A01 T01671053  RH  022%=      5-min Rain = 0
KWE2 232105Z 30009KT 17/M05 A3013 RMK A01 T01681053  RH  022%=      5-min Rain = 0
KWE2 232106Z 31014KT 17/M05 A3013 RMK A01 T01701051  RH  022%=      5-min Rain = 0
KWE2 232107Z 31012KT 17/M05 A3013 RMK A01 T01701051  RH  022%=      5-min Rain = 0
KWE2 232108Z 33013KT 17/M05 A3013 RMK A01 T01701050  RH  022%=      5-min Rain = 0
KWE2 232109Z 33012KT 17/M05 A3013 RMK A01 T01701049  RH  022%=      5-min Rain = 0
KWE2 232110Z 31010KT 17/M05 A3013 RMK A01 T01691050  RH  022%=      5-min Rain = 0
KWE2 232111Z 31011KT 17/M05 A3013 RMK A01 T01681051  RH  022%=      5-min Rain = 0
KWE2 232112Z 32014KT 17/M05 A3013 RMK A01 T01701050  RH  022%=      5-min Rain = 0
KWE2 232113Z 32017KT 17/M05 A3013 RMK A01 T01711052  RH  021%=      5-min Rain = 0
KWE2 232114Z 32013KT 17/M05 A3013 RMK A01 T01701054  RH  021%=      5-min Rain = 0
KWE2 232115Z 34013KT 17/M05 A3012 RMK A01 T01681054  RH  021%=      5-min Rain = 0
KWE2 232116Z 33011KT 17/M06 A3012 RMK A01 T01681057  RH  021%=      5-min Rain = 0
KWE2 232117Z 33010KT 17/M06 A3012 RMK A01 T01681056  RH  021%=      5-min Rain = 0
KWE2 232118Z 33010KT 17/M05 A3012 RMK A01 T01681053  RH  022%=      5-min Rain = 0
KWE2 232119Z 31011KT 17/M05 A3012 RMK A01 T01701051  RH  022%=      5-min Rain = 0
KWE2 232120Z 32009KT 17/M05 A3012 RMK A01 T01701051  RH  022%=      5-min Rain = 0
KWE2 232121Z 32010KT 17/M05 A3012 RMK A01 T01701051  RH  022%=      5-min Rain = 0
KWE2 232122Z 32011KT 17/M05 A3012 RMK A01 T01711051  RH  022%=      5-min Rain = 0
KWE2 232123Z 32012KT 17/M05 A3012 RMK A01 T01711051  RH  022%=      5-min Rain = 0
KWE2 232124Z 33012KT 17/M05 A3012 RMK A01 T01711051  RH  021%=      5-min Rain = 0
KWE2 232125Z 32010KT 17/M05 A3012 RMK A01 T01711051  RH  022%=      5-min Rain = 0
KWE2 232126Z 32008KT 17/M05 A3012 RMK A01 T01711048  RH  022%=      5-min Rain = 0
KWE2 232127Z 32011KT 17/M05 A3012 RMK A01 T01731049  RH  022%=      5-min Rain = 0
KWE2 232128Z 32016KT 17/M05 A3012 RMK A01 T01731051  RH  021%=      5-min Rain = 0
KWE2 232129Z 32012KT 17/M05 A3012 RMK A01 T01721054  RH  021%=      5-min Rain = 0
KWE2 232130Z 33012KT 17/M05 A3012 RMK A01 T01711050  RH  022%=      5-min Rain = 0
KWE2 232131Z 33014KT 17/M05 A3012 RMK A01 T01711050  RH  022%=      5-min Rain = 0
KWE2 232132Z 33011KT 17/M05 A3012 RMK A01 T01711049  RH  022%=      5-min Rain = 0
KWE2 232133Z 32012KT 17/M05 A3012 RMK A01 T01701047  RH  022%=      5-min Rain = 0
KWE2 232134Z 31012G17KT 17/M05 A3012 RMK A01 T01701046  RH  022%=      5-min Rain = 0
KWE2 232135Z 31015KT 17/M05 A3012 RMK A01 T01711049  RH  022%=      5-min Rain = 0
KWE2 232136Z 32011KT 17/M05 A3012 RMK A01 T01701051  RH  022%=      5-min Rain = 0
KWE2 232137Z 32015KT 17/M05 A3012 RMK A01 T01691047  RH  022%=      5-min Rain = 0
KWE2 232138Z 32010KT 17/M05 A3012 RMK A01 T01681046  RH  023%=      5-min Rain = 0
KWE2 232139Z 32009KT 17/M05 A3012 RMK A01 T01681045  RH  023%=      5-min Rain = 0
KWE2 232140Z 31010KT 17/M04 A3012 RMK A01 T01681044  RH  023%=      5-min Rain = 0
KWE2 232141Z 31013KT 17/M05 A3012 RMK A01 T01681045  RH  023%=      5-min Rain = 0
KWE2 232142Z 32011KT 17/M05 A3012 RMK A01 T01691045  RH  023%=      5-min Rain = 0
KWE2 232143Z 33013KT 17/M05 A3012 RMK A01 T01701045  RH  023%=      5-min Rain = 0
KWE2 232144Z 34014KT 17/M05 A3012 RMK A01 T01701045  RH  023%=      5-min Rain = 0
KWE2 232145Z 33013KT 17/M05 A3012 RMK A01 T01701046  RH  022%=      5-min Rain = 0
KWE2 232146Z 31011KT 17/M05 A3012 RMK A01 T01691047  RH  022%=      5-min Rain = 0
KWE2 232147Z 31011KT 17/M05 A3012 RMK A01 T01691048  RH  022%=      5-min Rain = 0
KWE2 232148Z 30013KT 17/M05 A3012 RMK A01 T01701045  RH  023%=      5-min Rain = 0
KWE2 232149Z 31011KT 17/M04 A3012 RMK A01 T01691042  RH  023%=      5-min Rain = 0
KWE2 232150Z 32012KT 17/M04 A3012 RMK A01 T01701041  RH  023%=      5-min Rain = 0
KWE2 232151Z 31012KT 17/M04 A3012 RMK A01 T01701041  RH  023%=      5-min Rain = 0
KWE2 232152Z 32013KT 17/M04 A3012 RMK A01 T01711041  RH  023%=      5-min Rain = 0
KWE2 232153Z 32009KT 17/M04 A3012 RMK A01 T01691041  RH  023%=      5-min Rain = 0
KWE2 232154Z 32008KT 17/M04 A3012 RMK A01 T01691039  RH  024%=      5-min Rain = 0
KWE2 232155Z 31012KT 17/M04 A3012 RMK A01 T01701040  RH  024%=      5-min Rain = 0
KWE2 232156Z 32015KT 17/M04 A3012 RMK A01 T01711043  RH  023%=      5-min Rain = 0
KWE2 232157Z 32011KT 17/M04 A3012 RMK A01 T01711043  RH  023%=      5-min Rain = 0
KWE2 232158Z 32013KT 17/M04 A3012 RMK A01 T01711043  RH  023%=      5-min Rain = 0
KWE2 232159Z 32012KT 17/M05 A3012 RMK A01 T01701045  RH  023%=      5-min Rain = 0
KWE2 232200Z 33011KT 17/M04 A3012 RMK A01 T01701043  RH  023%=      5-min Rain = 0
KWE2 232201Z 32012KT 17/M04 A3012 RMK A01 T01691044  RH  023%=      5-min Rain = 0
KWE2 232202Z 33012KT 17/M05 A3012 RMK A01 T01691045  RH  023%=      5-min Rain = 0
KWE2 232203Z 33013KT 17/M05 A3012 RMK A01 T01691045  RH  023%=      5-min Rain = 0
KWE2 232204Z 34010KT 17/M04 A3012 RMK A01 T01681044  RH  023%=      5-min Rain = 0
KWE2 232205Z 33013KT 17/M04 A3012 RMK A01 T01691041  RH  023%=      5-min Rain = 0
KWE2 232206Z 30012KT 17/M04 A3012 RMK A01 T01691041  RH  023%=      5-min Rain = 0
KWE2 232207Z 31011KT 17/M04 A3012 RMK A01 T01691042  RH  023%=      5-min Rain = 0
KWE2 232208Z 31013KT 17/M04 A3012 RMK A01 T01691042  RH  023%=      5-min Rain = 0
KWE2 232209Z 32012KT 17/M04 A3012 RMK A01 T01691041  RH  023%=      5-min Rain = 0
KWE2 232210Z 33012KT 17/M04 A3012 RMK A01 T01691041  RH  023%=      5-min Rain = 0
KWE2 232211Z 33009KT 17/M04 A3012 RMK A01 T01701042  RH  023%=      5-min Rain = 0
KWE2 232212Z 32010KT 17/M04 A3012 RMK A01 T01691040  RH  024%=      5-min Rain = 0
KWE2 232213Z 32013KT 17/M04 A3012 RMK A01 T01701040  RH  023%=      5-min Rain = 0
KWE2 232214Z 32013KT 17/M05 A3012 RMK A01 T01701045  RH  023%=      5-min Rain = 0
KWE2 232215Z 32011KT 17/M05 A3012 RMK A01 T01701046  RH  022%=      5-min Rain = 0
KWE2 232216Z 33010KT 17/M04 A3012 RMK A01 T01701044  RH  023%=      5-min Rain = 0
KWE2 232217Z 33011KT 17/M04 A3012 RMK A01 T01701043  RH  023%=      5-min Rain = 0
KWE2 232218Z 33012KT 17/M04 A3012 RMK A01 T01701044  RH  023%=      5-min Rain = 0
KWE2 232219Z 33013KT 17/M05 A3012 RMK A01 T01701046  RH  022%=      5-min Rain = 0
KWE2 232220Z 33012KT 17/M05 A3012 RMK A01 T01701048  RH  022%=      5-min Rain = 0
KWE2 232221Z 32010KT 17/M05 A3012 RMK A01 T01691049  RH  022%=      5-min Rain = 0
KWE2 232222Z 32012KT 17/M05 A3012 RMK A01 T01691049  RH  022%=      5-min Rain = 0
KWE2 232223Z 32012KT 17/M06 A3012 RMK A01 T01691055  RH  021%=      5-min Rain = 0
KWE2 232224Z 32010KT 17/M06 A3012 RMK A01 T01701056  RH  021%=      5-min Rain = 0
KWE2 232225Z 31011KT 17/M06 A3012 RMK A01 T01701056  RH  021%=      5-min Rain = 0
KWE2 232226Z 32012KT 17/M06 A3012 RMK A01 T01701057  RH  021%=      5-min Rain = 0
KWE2 232227Z 32010KT 17/M06 A3012 RMK A01 T01711056  RH  021%=      5-min Rain = 0
KWE2 232228Z 33011KT 17/M05 A3012 RMK A01 T01701054  RH  021%=      5-min Rain = 0
KWE2 232229Z 32012KT 17/M06 A3012 RMK A01 T01711057  RH  021%=      5-min Rain = 0
KWE2 232230Z 33011KT 17/M06 A3012 RMK A01 T01711060  RH  020%=      5-min Rain = 0
KWE2 232231Z 34010KT 17/M06 A3012 RMK A01 T01701061  RH  020%=      5-min Rain = 0
KWE2 232232Z 34010KT 17/M06 A3012 RMK A01 T01701058  RH  021%=      5-min Rain = 0
KWE2 232233Z 34011KT 17/M06 A3012 RMK A01 T01701060  RH  020%=      5-min Rain = 0
KWE2 232234Z 33009KT 17/M06 A3012 RMK A01 T01691060  RH  020%=      5-min Rain = 0
KWE2 232235Z 34010KT 17/M06 A3012 RMK A01 T01691061  RH  020%=      5-min Rain = 0
KWE2 232236Z 34011KT 17/M06 A3012 RMK A01 T01691060  RH  020%=      5-min Rain = 0
KWE2 232237Z 34010KT 17/M06 A3012 RMK A01 T01681059  RH  021%=      5-min Rain = 0
KWE2 232238Z 34009KT 17/M06 A3012 RMK A01 T01681058  RH  021%=      5-min Rain = 0
KWE2 232239Z 34009KT 17/M06 A3012 RMK A01 T01681057  RH  021%=      5-min Rain = 0
KWE2 232240Z 33009KT 17/M06 A3012 RMK A01 T01681055  RH  021%=      5-min Rain = 0
KWE2 232241Z 33009KT 17/M05 A3012 RMK A01 T01681053  RH  021%=      5-min Rain = 0
KWE2 232242Z 34011KT 17/M05 A3012 RMK A01 T01691054  RH  021%=      5-min Rain = 0
KWE2 232243Z 33011KT 17/M06 A3012 RMK A01 T01681056  RH  021%=      5-min Rain = 0
KWE2 232244Z 33010KT 17/M06 A3012 RMK A01 T01681056  RH  021%=      5-min Rain = 0
KWE2 232245Z 33008KT 17/M06 A3012 RMK A01 T01681055  RH  021%=      5-min Rain = 0
KWE2 232246Z 34010KT 17/M05 A3012 RMK A01 T01681053  RH  022%=      5-min Rain = 0
KWE2 232247Z 33012KT 17/M06 A3012 RMK A01 T01681057  RH  021%=      5-min Rain = 0
KWE2 232248Z 34011KT 17/M06 A3012 RMK A01 T01671060  RH  021%=      5-min Rain = 0
KWE2 232249Z 34011KT 17/M06 A3012 RMK A01 T01671062  RH  020%=      5-min Rain = 0
KWE2 232250Z 33012KT 17/M06 A3012 RMK A01 T01671062  RH  020%=      5-min Rain = 0
KWE2 232251Z 34011KT 17/M06 A3012 RMK A01 T01661061  RH  021%=      5-min Rain = 0
KWE2 232252Z 33010KT 17/M06 A3012 RMK A01 T01661061  RH  021%=      5-min Rain = 0
KWE2 232253Z 33009KT 17/M06 A3012 RMK A01 T01661060  RH  021%=      5-min Rain = 0
KWE2 232254Z 33009KT 17/M06 A3012 RMK A01 T01651059  RH  021%=      5-min Rain = 0
KWE2 232255Z 33009KT 17/M06 A3012 RMK A01 T01661059  RH  021%=      5-min Rain = 0
KWE2 232256Z 34007KT 17/M06 A3012 RMK A01 T01651058  RH  021%=      5-min Rain = 0
KWE2 232257Z 34008KT 17/M06 A3012 RMK A01 T01651056  RH  021%=      5-min Rain = 0
KWE2 232258Z 35008KT 17/M06 A3012 RMK A01 T01651056  RH  022%=      5-min Rain = 0
KWE2 232259Z 34009KT 17/M06 A3012 RMK A01 T01651055  RH  022%=      5-min Rain = 0
KWE2 232300Z 34010KT 16/M06 A3012 RMK A01 T01641057  RH  021%=      5-min Rain = 0
KWE2 232301Z 35009KT 16/M06 A3011 RMK A01 T01641057  RH  021%=      5-min Rain = 0
KWE2 232302Z 35011KT 16/M06 A3011 RMK A01 T01631058  RH  021%=      5-min Rain = 0
KWE2 232303Z 34010KT 16/M06 A3012 RMK A01 T01631059  RH  021%=      5-min Rain = 0
KWE2 232304Z 34010KT 16/M06 A3012 RMK A01 T01631059  RH  021%=      5-min Rain = 0
KWE2 232305Z 34009KT 16/M06 A3012 RMK A01 T01621058  RH  022%=      5-min Rain = 0
KWE2 232306Z 35008KT 16/M06 A3012 RMK A01 T01611057  RH  022%=      5-min Rain = 0
KWE2 232307Z 34009KT 16/M06 A3012 RMK A01 T01611057  RH  022%=      5-min Rain = 0
KWE2 232308Z 34008KT 16/M06 A3012 RMK A01 T01601058  RH  022%=      5-min Rain = 0
KWE2 232309Z 34009KT 16/M06 A3012 RMK A01 T01601058  RH  022%=      5-min Rain = 0
KWE2 232310Z 35008KT 16/M06 A3012 RMK A01 T01601058  RH  022%=      5-min Rain = 0
KWE2 232311Z 34007KT 16/M06 A3012 RMK A01 T01591058  RH  022%=      5-min Rain = 0
KWE2 232312Z 35008KT 16/M06 A3012 RMK A01 T01581057  RH  022%=      5-min Rain = 0
KWE2 232313Z 35007KT 16/M06 A3012 RMK A01 T01581057  RH  022%=      5-min Rain = 0
KWE2 232314Z 34007KT 16/M06 A3012 RMK A01 T01571055  RH  023%=      5-min Rain = 0
KWE2 232315Z 34007KT 16/M06 A3012 RMK A01 T01571055  RH  023%=      5-min Rain = 0
KWE2 232316Z 34007KT 16/M06 A3012 RMK A01 T01561055  RH  023%=      5-min Rain = 0
KWE2 232317Z 34006KT 16/M06 A3012 RMK A01 T01561056  RH  023%=      5-min Rain = 0
KWE2 232318Z 34006KT 16/M06 A3012 RMK A01 T01561055  RH  023%=      5-min Rain = 0
KWE2 232319Z 35006KT 16/M05 A3012 RMK A01 T01551054  RH  023%=      5-min Rain = 0
KWE2 232320Z 35006KT 15/M05 A3012 RMK A01 T01541053  RH  024%=      5-min Rain = 0
KWE2 232321Z 35006KT 15/M05 A3012 RMK A01 T01531053  RH  024%=      5-min Rain = 0
KWE2 232322Z 35006KT 15/M05 A3012 RMK A01 T01531052  RH  024%=      5-min Rain = 0
KWE2 232323Z 35006KT 15/M05 A3012 RMK A01 T01521051  RH  024%=      5-min Rain = 0
KWE2 232324Z 35007KT 15/M05 A3012 RMK A01 T01501051  RH  025%=      5-min Rain = 0
KWE2 232325Z 35006KT 15/M05 A3012 RMK A01 T01501051  RH  025%=      5-min Rain = 0
KWE2 232326Z 34007KT 15/M05 A3012 RMK A01 T01491051  RH  025%=      5-min Rain = 0
KWE2 232327Z 34007KT 15/M05 A3012 RMK A01 T01491051  RH  025%=      5-min Rain = 0
KWE2 232328Z 34006KT 15/M05 A3012 RMK A01 T01481051  RH  025%=      5-min Rain = 0
KWE2 232329Z 34006KT 15/M05 A3013 RMK A01 T01471050  RH  025%=      5-min Rain = 0
KWE2 232330Z 34007KT 15/M05 A3013 RMK A01 T01461050  RH  025%=      5-min Rain = 0
KWE2 232331Z 34006KT 15/M05 A3013 RMK A01 T01461049  RH  026%=      5-min Rain = 0
KWE2 232332Z 34006KT 15/M05 A3013 RMK A01 T01451049  RH  026%=      5-min Rain = 0
KWE2 232333Z 33005KT 14/M05 A3013 RMK A01 T01441049  RH  026%=      5-min Rain = 0
KWE2 232334Z 34005KT 14/M05 A3013 RMK A01 T01431049  RH  026%=      5-min Rain = 0
KWE2 232335Z 34005KT 14/M05 A3013 RMK A01 T01411048  RH  027%=      5-min Rain = 0
KWE2 232336Z 34005KT 14/M05 A3013 RMK A01 T01401047  RH  027%=      5-min Rain = 0
KWE2 232337Z 34005KT 14/M05 A3013 RMK A01 T01381047  RH  027%=      5-min Rain = 0
KWE2 232338Z 34005KT 14/M05 A3013 RMK A01 T01361047  RH  028%=      5-min Rain = 0
KWE2 232339Z 34005KT 14/M05 A3013 RMK A01 T01351047  RH  028%=      5-min Rain = 0
KWE2 232340Z 34005KT 13/M05 A3013 RMK A01 T01331047  RH  028%=      5-min Rain = 0
KWE2 232341Z 34005KT 13/M05 A3013 RMK A01 T01321047  RH  029%=      5-min Rain = 0
KWE2 232342Z 34006KT 13/M05 A3013 RMK A01 T01311046  RH  029%=      5-min Rain = 0
KWE2 232343Z 34005KT 13/M05 A3013 RMK A01 T01291046  RH  029%=      5-min Rain = 0
KWE2 232344Z 34005KT 13/M05 A3013 RMK A01 T01281045  RH  030%=      5-min Rain = 0
KWE2 232345Z 34005KT 13/M05 A3013 RMK A01 T01261045  RH  030%=      5-min Rain = 0
KWE2 232346Z 34005KT 12/M05 A3013 RMK A01 T01241046  RH  030%=      5-min Rain = 0
KWE2 232347Z 34005KT 12/M05 A3013 RMK A01 T01231045  RH  031%=      5-min Rain = 0
KWE2 232348Z 34005KT 12/M04 A3013 RMK A01 T01221044  RH  031%=      5-min Rain = 0
KWE2 232349Z 34005KT 12/M04 A3013 RMK A01 T01211044  RH  031%=      5-min Rain = 0
KWE2 232350Z 34005KT 12/M04 A3013 RMK A01 T01201044  RH  031%=      5-min Rain = 0
KWE2 232351Z 34005KT 12/M04 A3013 RMK A01 T01191044  RH  032%=      5-min Rain = 0
KWE2 232352Z 34004KT 12/M04 A3013 RMK A01 T01171044  RH  032%=      5-min Rain = 0
KWE2 232353Z 34004KT 12/M04 A3013 RMK A01 T01161044  RH  032%=      5-min Rain = 0
KWE2 232354Z 34005KT 12/M04 A3013 RMK A01 T01151044  RH  033%=      5-min Rain = 0
KWE2 232355Z 34004KT 12/M04 A3013 RMK A01 T01151043  RH  033%=      5-min Rain = 0
KWE2 232356Z 34004KT 11/M04 A3013 RMK A01 T01141042  RH  033%=      5-min Rain = 0
KWE2 232357Z 34005KT 11/M04 A3014 RMK A01 T01131042  RH  033%=      5-min Rain = 0
KWE2 232358Z 34005KT 11/M04 A3014 RMK A01 T01131042  RH  033%=      5-min Rain = 0
KWE2 232359Z 34005KT 11/M04 A3014 RMK A01 T01131042  RH  033%=      5-min Rain = 0
KWE2 240000Z 34005KT 11/M04 A3014 RMK A01 T01121042  RH  034%=      5-min Rain = 0
KWE2 240001Z 34005KT 11/M04 A3014 RMK A01 T01111042  RH  034%=      5-min Rain = 0
KWE2 240002Z 34005KT 11/M04 A3014 RMK A01 T01101043  RH  034%=      5-min Rain = 0
KWE2 240003Z 34005KT 11/M04 A3014 RMK A01 T01101043  RH  034%=      5-min Rain = 0
KWE2 240004Z 34004KT 11/M04 A3014 RMK A01 T01091043  RH  034%=      5-min Rain = 0
KWE2 240005Z 34004KT 11/M04 A3014 RMK A01 T01081041  RH  035%=      5-min Rain = 0
KWE2 240006Z 01003KT 11/M04 A3014 RMK A01 T01051039  RH  036%=      5-min Rain = 0
KWE2 240007Z 36003KT 10/M04 A3014 RMK A01 T01031039  RH  037%=      5-min Rain = 0
KWE2 240008Z 34004KT 10/M04 A3014 RMK A01 T01021042  RH  036%=      5-min Rain = 0
KWE2 240009Z 35003KT 10/M04 A3014 RMK A01 T01031041  RH  036%=      5-min Rain = 0
KWE2 240010Z 36003KT 10/M04 A3014 RMK A01 T01031040  RH  036%=      5-min Rain = 0
KWE2 240011Z 36003KT 10/M04 A3014 RMK A01 T01021038  RH  037%=      5-min Rain = 0
KWE2 240012Z 35003KT 10/M04 A3014 RMK A01 T01011038  RH  037%=      5-min Rain = 0
KWE2 240013Z 36003KT 10/M04 A3014 RMK A01 T00991038  RH  038%=      5-min Rain = 0
KWE2 240014Z 35003KT 10/M04 A3014 RMK A01 T00981039  RH  038%=      5-min Rain = 0
KWE2 240015Z 35003KT 10/M04 A3014 RMK A01 T00981041  RH  037%=      5-min Rain = 0
KWE2 240016Z 35003KT 10/M04 A3014 RMK A01 T00991041  RH  037%=      5-min Rain = 0
KWE2 240017Z 35003KT 10/M04 A3014 RMK A01 T01001041  RH  037%=      5-min Rain = 0
KWE2 240018Z 34003KT 10/M04 A3014 RMK A01 T01001041  RH  037%=      5-min Rain = 0
KWE2 240019Z 34003KT 10/M04 A3014 RMK A01 T01001041  RH  037%=      5-min Rain = 0
KWE2 240020Z 34003KT 10/M04 A3014 RMK A01 T01011040  RH  037%=      5-min Rain = 0
KWE2 240021Z 35003KT 10/M04 A3014 RMK A01 T01011040  RH  037%=      5-min Rain = 0
KWE2 240022Z 34003KT 10/M04 A3014 RMK A01 T01011040  RH  037%=      5-min Rain = 0
KWE2 240023Z 34003KT 10/M04 A3014 RMK A01 T01011040  RH  037%=      5-min Rain = 0
KWE2 240024Z 34003KT 10/M04 A3014 RMK A01 T01011039  RH  037%=      5-min Rain = 0
KWE2 240025Z 33003KT 10/M04 A3014 RMK A01 T01011039  RH  037%=      5-min Rain = 0
KWE2 240026Z 32002KT 10/M04 A3014 RMK A01 T00991039  RH  037%=      5-min Rain = 0
KWE2 240027Z 33003KT 10/M04 A3014 RMK A01 T00981039  RH  038%=      5-min Rain = 0
KWE2 240028Z 32002KT 10/M04 A3014 RMK A01 T00971037  RH  039%=      5-min Rain = 0
KWE2 240029Z 33002KT 10/M04 A3014 RMK A01 T00961036  RH  039%=      5-min Rain = 0
KWE2 240030Z 32003KT 09/M04 A3014 RMK A01 T00941036  RH  040%=      5-min Rain = 0
KWE2 240031Z 33003KT 09/M04 A3014 RMK A01 T00941035  RH  040%=      5-min Rain = 0
KWE2 240032Z 32003KT 09/M03 A3014 RMK A01 T00931033  RH  041%=      5-min Rain = 0
KWE2 240033Z 32003KT 09/M03 A3014 RMK A01 T00911034  RH  041%=      5-min Rain = 0
KWE2 240034Z 32003KT 09/M03 A3014 RMK A01 T00891033  RH  042%=      5-min Rain = 0
KWE2 240035Z 32003KT 09/M03 A3014 RMK A01 T00861031  RH  043%=      5-min Rain = 0
KWE2 240036Z 31003KT 08/M03 A3014 RMK A01 T00831031  RH  044%=      5-min Rain = 0
KWE2 240037Z 30003KT 08/M03 A3015 RMK A01 T00811029  RH  046%=      5-min Rain = 0
KWE2 240038Z 32003KT 08/M03 A3015 RMK A01 T00781029  RH  047%=      5-min Rain = 0
KWE2 240039Z 32003KT 08/M03 A3015 RMK A01 T00761029  RH  047%=      5-min Rain = 0
KWE2 240040Z 31003KT 07/M03 A3015 RMK A01 T00741028  RH  048%=      5-min Rain = 0
KWE2 240041Z 30003KT 07/M03 A3015 RMK A01 T00731029  RH  049%=      5-min Rain = 0
KWE2 240042Z 31003KT 07/M03 A3015 RMK A01 T00721030  RH  048%=      5-min Rain = 0
KWE2 240043Z 31004KT 07/M03 A3015 RMK A01 T00721029  RH  049%=      5-min Rain = 0
KWE2 240044Z 31003KT 07/M03 A3015 RMK A01 T00711028  RH  049%=      5-min Rain = 0
KWE2 240045Z 31003KT 07/M03 A3015 RMK A01 T00701028  RH  050%=      5-min Rain = 0
KWE2 240046Z 32003KT 07/M03 A3015 RMK A01 T00691028  RH  050%=      5-min Rain = 0
KWE2 240047Z 35002KT 07/M03 A3015 RMK A01 T00691028  RH  050%=      5-min Rain = 0
KWE2 240048Z 00002KT 07/M03 A3015 RMK A01 T00691027  RH  050%=      5-min Rain = 0
KWE2 240049Z 33003KT 07/M03 A3015 RMK A01 T00711028  RH  049%=      5-min Rain = 0
KWE2 240050Z 32003KT 07/M03 A3015 RMK A01 T00721030  RH  049%=      5-min Rain = 0
KWE2 240051Z 33003KT 07/M03 A3015 RMK A01 T00721029  RH  049%=      5-min Rain = 0
KWE2 240052Z 33003KT 07/M03 A3015 RMK A01 T00721029  RH  048%=      5-min Rain = 0
KWE2 240053Z 32004KT 07/M03 A3015 RMK A01 T00721029  RH  048%=      5-min Rain = 0
KWE2 240054Z 32003KT 07/M03 A3015 RMK A01 T00731029  RH  048%=      5-min Rain = 0
KWE2 240055Z 33003KT 07/M03 A3015 RMK A01 T00731028  RH  049%=      5-min Rain = 0
KWE2 240056Z 33003KT 07/M03 A3015 RMK A01 T00741030  RH  048%=      5-min Rain = 0
KWE2 240057Z 33003KT 08/M03 A3015 RMK A01 T00751031  RH  047%=      5-min Rain = 0
KWE2 240058Z 33003KT 08/M03 A3015 RMK A01 T00761031  RH  047%=      5-min Rain = 0
KWE2 240059Z 32003KT 08/M03 A3015 RMK A01 T00771030  RH  047%=      5-min Rain = 0
KWE2 240100Z 32003KT 08/M03 A3015 RMK A01 T00771030  RH  047%=      5-min Rain = 0
KWE2 240101Z 31003KT 08/M03 A3015 RMK A01 T00771028  RH  048%=      5-min Rain = 0
KWE2 240102Z 31003KT 08/M03 A3015 RMK A01 T00761027  RH  048%=      5-min Rain = 0
KWE2 240103Z 31003KT 08/M03 A3015 RMK A01 T00751027  RH  048%=      5-min Rain = 0
KWE2 240104Z 31003KT 07/M03 A3015 RMK A01 T00741026  RH  049%=      5-min Rain = 0
KWE2 240105Z 31003KT 07/M03 A3015 RMK A01 T00731026  RH  049%=      5-min Rain = 0
KWE2 240106Z 31004KT 07/M03 A3015 RMK A01 T00721026  RH  050%=      5-min Rain = 0
KWE2 240107Z 30004KT 07/M03 A3015 RMK A01 T00711026  RH  050%=      5-min Rain = 0
KWE2 240108Z 30004KT 07/M03 A3015 RMK A01 T00701025  RH  051%=      5-min Rain = 0
KWE2 240109Z 29004KT 07/M03 A3015 RMK A01 T00701025  RH  051%=      5-min Rain = 0
KWE2 240110Z 29005KT 07/M03 A3015 RMK A01 T00701026  RH  050%=      5-min Rain = 0
KWE2 240111Z 29005KT 07/M03 A3015 RMK A01 T00701028  RH  050%=      5-min Rain = 0
KWE2 240112Z 30004KT 07/M03 A3015 RMK A01 T00701027  RH  050%=      5-min Rain = 0
KWE2 240113Z 31004KT 07/M03 A3015 RMK A01 T00701026  RH  050%=      5-min Rain = 0
KWE2 240114Z 31004KT 07/M03 A3015 RMK A01 T00691026  RH  051%=      5-min Rain = 0
KWE2 240115Z 31004KT 07/M03 A3015 RMK A01 T00691025  RH  051%=      5-min Rain = 0
KWE2 240116Z 31004KT 07/M02 A3015 RMK A01 T00681023  RH  052%=      5-min Rain = 0
KWE2 240117Z 31003KT 07/M02 A3015 RMK A01 T00681023  RH  052%=      5-min Rain = 0
KWE2 240118Z 31004KT 07/M02 A3015 RMK A01 T00671023  RH  052%=      5-min Rain = 0
KWE2 240119Z 31004KT 07/M02 A3015 RMK A01 T00651024  RH  053%=      5-min Rain = 0
KWE2 240120Z 31004KT 06/M02 A3016 RMK A01 T00641022  RH  054%=      5-min Rain = 0
KWE2 240121Z 30004KT 06/M02 A3016 RMK A01 T00621023  RH  054%=      5-min Rain = 0
KWE2 240122Z 30004KT 06/M03 A3016 RMK A01 T00611026  RH  054%=      5-min Rain = 0
KWE2 240123Z 30004KT 06/M02 A3016 RMK A01 T00601023  RH  055%=      5-min Rain = 0
KWE2 240124Z 30004KT 06/M02 A3016 RMK A01 T00591021  RH  056%=      5-min Rain = 0
KWE2 240125Z 31004KT 06/M02 A3016 RMK A01 T00591021  RH  057%=      5-min Rain = 0
KWE2 240126Z 30004KT 06/M02 A3016 RMK A01 T00581022  RH  056%=      5-min Rain = 0
KWE2 240127Z 30004KT 06/M02 A3016 RMK A01 T00581023  RH  056%=      5-min Rain = 0
KWE2 240128Z 30004KT 06/M02 A3016 RMK A01 T00581023  RH  056%=      5-min Rain = 0
KWE2 240129Z 30004KT 06/M02 A3016 RMK A01 T00581022  RH  056%=      5-min Rain = 0
KWE2 240130Z 31004KT 06/M02 A3016 RMK A01 T00581024  RH  056%=      5-min Rain = 0
KWE2 240131Z 31004KT 06/M03 A3016 RMK A01 T00581025  RH  055%=      5-min Rain = 0
KWE2 240132Z 31004KT 06/M03 A3016 RMK A01 T00581025  RH  055%=      5-min Rain = 0
KWE2 240133Z 30004KT 06/M03 A3016 RMK A01 T00591025  RH  055%=      5-min Rain = 0
KWE2 240134Z 31004KT 06/M03 A3016 RMK A01 T00591026  RH  055%=      5-min Rain = 0
KWE2 240135Z 31004KT 06/M02 A3016 RMK A01 T00581024  RH  055%=      5-min Rain = 0
KWE2 240136Z 31004KT 06/M02 A3016 RMK A01 T00581024  RH  056%=      5-min Rain = 0
KWE2 240137Z 31004KT 06/M03 A3016 RMK A01 T00561027  RH  055%=      5-min Rain = 0
KWE2 240138Z 31004KT 06/M03 A3016 RMK A01 T00561027  RH  055%=      5-min Rain = 0
KWE2 240139Z 31004KT 06/M03 A3016 RMK A01 T00561027  RH  055%=      5-min Rain = 0
KWE2 240140Z 31004KT 06/M03 A3016 RMK A01 T00551026  RH  056%=      5-min Rain = 0
KWE2 240141Z 31004KT 06/M02 A3016 RMK A01 T00551023  RH  057%=      5-min Rain = 0
KWE2 240142Z 31004KT 05/M02 A3016 RMK A01 T00541023  RH  058%=      5-min Rain = 0
KWE2 240143Z 31004KT 05/M02 A3016 RMK A01 T00541024  RH  057%=      5-min Rain = 0
KWE2 240144Z 31003KT 05/M02 A3016 RMK A01 T00541024  RH  057%=      5-min Rain = 0
KWE2 240145Z 32003KT 05/M03 A3016 RMK A01 T00531025  RH  057%=      5-min Rain = 0
KWE2 240146Z 32003KT 05/M02 A3016 RMK A01 T00531024  RH  057%=      5-min Rain = 0
KWE2 240147Z 32003KT 05/M02 A3016 RMK A01 T00541024  RH  057%=      5-min Rain = 0
KWE2 240148Z 32004KT 05/M02 A3016 RMK A01 T00531024  RH  057%=      5-min Rain = 0
KWE2 240149Z 31003KT 05/M02 A3016 RMK A01 T00531023  RH  058%=      5-min Rain = 0
KWE2 240150Z 32004KT 05/M02 A3016 RMK A01 T00531021  RH  059%=      5-min Rain = 0
KWE2 240151Z 32004KT 05/M02 A3016 RMK A01 T00531022  RH  058%=      5-min Rain = 0
KWE2 240152Z 32004KT 05/M02 A3016 RMK A01 T00521021  RH  059%=      5-min Rain = 0
KWE2 240153Z 32004KT 05/M02 A3016 RMK A01 T00521021  RH  059%=      5-min Rain = 0
KWE2 240154Z 32004KT 05/M02 A3016 RMK A01 T00511024  RH  058%=      5-min Rain = 0
KWE2 240155Z 32004KT 05/M03 A3016 RMK A01 T00501026  RH  058%=      5-min Rain = 0
KWE2 240156Z 32004KT 05/M03 A3016 RMK A01 T00501027  RH  058%=      5-min Rain = 0
KWE2 240157Z 32004KT 05/M03 A3016 RMK A01 T00491027  RH  058%=      5-min Rain = 0
KWE2 240158Z 33004KT 05/M03 A3016 RMK A01 T00491027  RH  058%=      5-min Rain = 0
KWE2 240159Z 33004KT 05/M03 A3016 RMK A01 T00491026  RH  058%=      5-min Rain = 0
KWE2 240200Z 33004KT 05/M03 A3016 RMK A01 T00501025  RH  058%=      5-min Rain = 0
KWE2 240201Z 33004KT 05/M02 A3016 RMK A01 T00511024  RH  058%=      5-min Rain = 0
KWE2 240202Z 33004KT 05/M03 A3016 RMK A01 T00511025  RH  058%=      5-min Rain = 0
KWE2 240203Z 33004KT 05/M02 A3016 RMK A01 T00521024  RH  058%=      5-min Rain = 0
KWE2 240204Z 33004KT 05/M02 A3016 RMK A01 T00521023  RH  058%=      5-min Rain = 0
KWE2 240205Z 33004KT 05/M02 A3016 RMK A01 T00531023  RH  058%=      5-min Rain = 0
KWE2 240206Z 33004KT 05/M02 A3016 RMK A01 T00531023  RH  058%=      5-min Rain = 0
KWE2 240207Z 33004KT 05/M02 A3016 RMK A01 T00531021  RH  059%=      5-min Rain = 0
KWE2 240208Z 33004KT 05/M02 A3016 RMK A01 T00531020  RH  059%=      5-min Rain = 0
KWE2 240209Z 33003KT 05/M02 A3016 RMK A01 T00531021  RH  059%=      5-min Rain = 0
KWE2 240210Z 33003KT 05/M02 A3016 RMK A01 T00521022  RH  058%=      5-min Rain = 0
KWE2 240211Z 32003KT 05/M02 A3016 RMK A01 T00531023  RH  058%=      5-min Rain = 0
KWE2 240212Z 32004KT 05/M02 A3016 RMK A01 T00531023  RH  058%=      5-min Rain = 0
KWE2 240213Z 32004KT 05/M02 A3016 RMK A01 T00541023  RH  058%=      5-min Rain = 0
KWE2 240214Z 32004KT 05/M02 A3016 RMK A01 T00541024  RH  057%=      5-min Rain = 0
KWE2 240215Z 32004KT 06/M02 A3016 RMK A01 T00551024  RH  057%=      5-min Rain = 0
KWE2 240216Z 32004KT 06/M02 A3016 RMK A01 T00551023  RH  057%=      5-min Rain = 0
KWE2 240217Z 32004KT 06/M02 A3016 RMK A01 T00551023  RH  057%=      5-min Rain = 0
KWE2 240218Z 32004KT 06/M02 A3016 RMK A01 T00551022  RH  058%=      5-min Rain = 0
KWE2 240219Z 32004KT 05/M02 A3016 RMK A01 T00541022  RH  058%=      5-min Rain = 0
KWE2 240220Z 31004KT 05/M02 A3016 RMK A01 T00541021  RH  058%=      5-min Rain = 0
KWE2 240221Z 31004KT 05/M02 A3016 RMK A01 T00531021  RH  059%=      5-min Rain = 0
KWE2 240222Z 31004KT 05/M02 A3016 RMK A01 T00511022  RH  059%=      5-min Rain = 0
KWE2 240223Z 31004KT 05/M02 A3016 RMK A01 T00501022  RH  060%=      5-min Rain = 0
KWE2 240224Z 30003KT 05/M02 A3016 RMK A01 T00491021  RH  061%=      5-min Rain = 0
KWE2 240225Z 30003KT 05/M02 A3016 RMK A01 T00481021  RH  061%=      5-min Rain = 0
KWE2 240226Z 30003KT 05/M02 A3016 RMK A01 T00471020  RH  061%=      5-min Rain = 0
KWE2 240227Z 30003KT 05/M02 A3016 RMK A01 T00471019  RH  062%=      5-min Rain = 0
KWE2 240228Z 30003KT 05/M02 A3016 RMK A01 T00461021  RH  062%=      5-min Rain = 0
KWE2 240229Z 31004KT 05/M02 A3016 RMK A01 T00461021  RH  062%=      5-min Rain = 0
KWE2 240230Z 31004KT 05/M02 A3016 RMK A01 T00461022  RH  061%=      5-min Rain = 0
KWE2 240231Z 31003KT 05/M02 A3016 RMK A01 T00461022  RH  061%=      5-min Rain = 0
KWE2 240232Z 31003KT 05/M02 A3016 RMK A01 T00461021  RH  062%=      5-min Rain = 0
KWE2 240233Z 31003KT 05/M02 A3016 RMK A01 T00461021  RH  062%=      5-min Rain = 0
KWE2 240234Z 32003KT 05/M02 A3016 RMK A01 T00451021  RH  062%=      5-min Rain = 0
KWE2 240235Z 32003KT 05/M02 A3016 RMK A01 T00451019  RH  063%=      5-min Rain = 0
KWE2 240236Z 33004KT 04/M02 A3016 RMK A01 T00441019  RH  064%=      5-min Rain = 0
KWE2 240237Z 33004KT 04/M02 A3016 RMK A01 T00441019  RH  064%=      5-min Rain = 0
KWE2 240238Z 32004KT 04/M02 A3016 RMK A01 T00441018  RH  064%=      5-min Rain = 0
KWE2 240239Z 32003KT 04/M02 A3016 RMK A01 T00441017  RH  064%=      5-min Rain = 0
KWE2 240240Z 32003KT 04/M02 A3016 RMK A01 T00441017  RH  065%=      5-min Rain = 0
KWE2 240241Z 32004KT 04/M02 A3016 RMK A01 T00431016  RH  066%=      5-min Rain = 0
KWE2 240242Z 32004KT 04/M02 A3016 RMK A01 T00411016  RH  066%=      5-min Rain = 0
KWE2 240243Z 32004KT 04/M02 A3016 RMK A01 T00401018  RH  066%=      5-min Rain = 0
KWE2 240244Z 32005KT 04/M02 A3016 RMK A01 T00401019  RH  065%=      5-min Rain = 0
KWE2 240245Z 32005KT 04/M02 A3016 RMK A01 T00391019  RH  066%=      5-min Rain = 0
KWE2 240246Z 32005KT 04/M02 A3016 RMK A01 T00381019  RH  066%=      5-min Rain = 0
KWE2 240247Z 32005KT 04/M02 A3016 RMK A01 T00371020  RH  066%=      5-min Rain = 0
KWE2 240248Z 32005KT 04/M02 A3016 RMK A01 T00371019  RH  067%=      5-min Rain = 0
KWE2 240249Z 33005KT 04/M02 A3016 RMK A01 T00371018  RH  067%=      5-min Rain = 0
KWE2 240250Z 33005KT 04/M02 A3016 RMK A01 T00371020  RH  066%=      5-min Rain = 0
KWE2 240251Z 33005KT 04/M02 A3016 RMK A01 T00381020  RH  066%=      5-min Rain = 0
KWE2 240252Z 33005KT 04/M02 A3016 RMK A01 T00381020  RH  066%=      5-min Rain = 0
KWE2 240253Z 33004KT 04/M02 A3016 RMK A01 T00381019  RH  066%=      5-min Rain = 0
KWE2 240254Z 32004KT 04/M02 A3016 RMK A01 T00381019  RH  066%=      5-min Rain = 0
KWE2 240255Z 32004KT 04/M02 A3016 RMK A01 T00381018  RH  067%=      5-min Rain = 0
KWE2 240256Z 32004KT 04/M02 A3016 RMK A01 T00381018  RH  067%=      5-min Rain = 0
KWE2 240257Z 32004KT 04/M02 A3016 RMK A01 T00381018  RH  067%=      5-min Rain = 0
KWE2 240258Z 32004KT 04/M02 A3016 RMK A01 T00381019  RH  066%=      5-min Rain = 0
KWE2 240259Z 33004KT 04/M02 A3016 RMK A01 T00381019  RH  066%=      5-min Rain = 0
KWE2 240300Z 33004KT 04/M02 A3016 RMK A01 T00381019  RH  066%=      5-min Rain = 0
KWE2 240301Z 32004KT 04/M02 A3016 RMK A01 T00391019  RH  066%=      5-min Rain = 0
KWE2 240302Z 32004KT 04/M02 A3016 RMK A01 T00391019  RH  066%=      5-min Rain = 0
KWE2 240303Z 32004KT 04/M02 A3016 RMK A01 T00391019  RH  065%=      5-min Rain = 0
KWE2 240304Z 32004KT 04/M02 A3016 RMK A01 T00401019  RH  065%=      5-min Rain = 0
KWE2 240305Z 33004KT 04/M02 A3016 RMK A01 T00401019  RH  065%=      5-min Rain = 0
KWE2 240306Z 33004KT 04/M02 A3016 RMK A01 T00401019  RH  066%=      5-min Rain = 0
KWE2 240307Z 33004KT 04/M02 A3016 RMK A01 T00401019  RH  066%=      5-min Rain = 0
KWE2 240308Z 32004KT 04/M02 A3016 RMK A01 T00401019  RH  066%=      5-min Rain = 0
KWE2 240309Z 32004KT 04/M02 A3016 RMK A01 T00401019  RH  066%=      5-min Rain = 0
KWE2 240310Z 32004KT 04/M02 A3016 RMK A01 T00401019  RH  066%=      5-min Rain = 0
KWE2 240311Z 32004KT 04/M02 A3016 RMK A01 T00401018  RH  066%=      5-min Rain = 0
KWE2 240312Z 32004KT 04/M02 A3016 RMK A01 T00401018  RH  066%=      5-min Rain = 0
KWE2 240313Z 32004KT 04/M02 A3016 RMK A01 T00391018  RH  066%=      5-min Rain = 0
KWE2 240314Z 32004KT 04/M02 A3016 RMK A01 T00391018  RH  066%=      5-min Rain = 0
KWE2 240315Z 32004KT 04/M02 A3016 RMK A01 T00391018  RH  066%=      5-min Rain = 0
KWE2 240316Z 32004KT 04/M02 A3016 RMK A01 T00381019  RH  066%=      5-min Rain = 0
KWE2 240317Z 32004KT 04/M02 A3016 RMK A01 T00381019  RH  066%=      5-min Rain = 0
KWE2 240318Z 33004KT 04/M02 A3016 RMK A01 T00391019  RH  066%=      5-min Rain = 0
KWE2 240319Z 32004KT 04/M02 A3016 RMK A01 T00381019  RH  066%=      5-min Rain = 0
KWE2 240320Z 32004KT 04/M02 A3016 RMK A01 T00381017  RH  067%=      5-min Rain = 0
KWE2 240321Z 31003KT 04/M02 A3016 RMK A01 T00371017  RH  068%=      5-min Rain = 0
KWE2 240322Z 32004KT 04/M02 A3016 RMK A01 T00371018  RH  067%=      5-min Rain = 0
KWE2 240323Z 32004KT 04/M02 A3016 RMK A01 T00361019  RH  067%=      5-min Rain = 0
KWE2 240324Z 32004KT 04/M02 A3016 RMK A01 T00371019  RH  067%=      5-min Rain = 0
KWE2 240325Z 31004KT 04/M02 A3015 RMK A01 T00371018  RH  067%=      5-min Rain = 0
KWE2 240326Z 32004KT 04/M02 A3015 RMK A01 T00371019  RH  067%=      5-min Rain = 0
KWE2 240327Z 31004KT 04/M02 A3015 RMK A01 T00371018  RH  067%=      5-min Rain = 0
KWE2 240328Z 31003KT 04/M02 A3015 RMK A01 T00371018  RH  067%=      5-min Rain = 0
KWE2 240329Z 31003KT 04/M02 A3015 RMK A01 T00371016  RH  068%=      5-min Rain = 0
KWE2 240330Z 30003KT 04/M02 A3015 RMK A01 T00381017  RH  067%=      5-min Rain = 0
KWE2 240331Z 30003KT 04/M02 A3015 RMK A01 T00371020  RH  066%=      5-min Rain = 0
KWE2 240332Z 31003KT 04/M02 A3015 RMK A01 T00361021  RH  066%=      5-min Rain = 0
KWE2 240333Z 32003KT 04/M02 A3015 RMK A01 T00361021  RH  066%=      5-min Rain = 0
KWE2 240334Z 32003KT 04/M02 A3015 RMK A01 T00361021  RH  066%=      5-min Rain = 0
KWE2 240335Z 32003KT 04/M02 A3015 RMK A01 T00361020  RH  067%=      5-min Rain = 0
KWE2 240336Z 31002KT 04/M02 A3015 RMK A01 T00361019  RH  067%=      5-min Rain = 0
KWE2 240337Z 31002KT 04/M02 A3015 RMK A01 T00351018  RH  068%=      5-min Rain = 0
KWE2 240338Z 31002KT 03/M02 A3015 RMK A01 T00341018  RH  069%=      5-min Rain = 0
KWE2 240339Z 32003KT 03/M02 A3015 RMK A01 T00341017  RH  069%=      5-min Rain = 0
KWE2 240340Z 32003KT 03/M02 A3015 RMK A01 T00331016  RH  070%=      5-min Rain = 0
KWE2 240341Z 32003KT 03/M02 A3015 RMK A01 T00331016  RH  070%=      5-min Rain = 0
KWE2 240342Z 32002KT 03/M02 A3015 RMK A01 T00331016  RH  070%=      5-min Rain = 0
KWE2 240343Z 33003KT 03/M02 A3015 RMK A01 T00321017  RH  070%=      5-min Rain = 0
KWE2 240344Z 33003KT 03/M02 A3015 RMK A01 T00321019  RH  069%=      5-min Rain = 0
KWE2 240345Z 32003KT 03/M02 A3015 RMK A01 T00321019  RH  069%=      5-min Rain = 0
KWE2 240346Z 32003KT 03/M02 A3015 RMK A01 T00321019  RH  069%=      5-min Rain = 0
KWE2 240347Z 32003KT 03/M02 A3015 RMK A01 T00331020  RH  069%=      5-min Rain = 0
KWE2 240348Z 31003KT 03/M02 A3015 RMK A01 T00331020  RH  068%=      5-min Rain = 0
KWE2 240349Z 31003KT 03/M02 A3015 RMK A01 T00331017  RH  069%=      5-min Rain = 0
KWE2 240350Z 31003KT 03/M02 A3015 RMK A01 T00331015  RH  071%=      5-min Rain = 0
KWE2 240351Z 31003KT 03/M02 A3015 RMK A01 T00321017  RH  070%=      5-min Rain = 0
KWE2 240352Z 31003KT 03/M02 A3015 RMK A01 T00321019  RH  069%=      5-min Rain = 0
KWE2 240353Z 31004KT 03/M02 A3015 RMK A01 T00321020  RH  069%=      5-min Rain = 0
KWE2 240354Z 31003KT 03/M02 A3015 RMK A01 T00321019  RH  069%=      5-min Rain = 0
KWE2 240355Z 31003KT 03/M02 A3015 RMK A01 T00321019  RH  069%=      5-min Rain = 0
KWE2 240356Z 31003KT 03/M02 A3015 RMK A01 T00311018  RH  070%=      5-min Rain = 0
KWE2 240357Z 31003KT 03/M02 A3015 RMK A01 T00301018  RH  070%=      5-min Rain = 0
KWE2 240358Z 30003KT 03/M02 A3015 RMK A01 T00291018  RH  071%=      5-min Rain = 0
KWE2 240359Z 30003KT 03/M02 A3015 RMK A01 T00291017  RH  072%=      5-min Rain = 0
KWE2 240400Z 30003KT 03/M02 A3015 RMK A01 T00281016  RH  073%=      5-min Rain = 0
KWE2 240401Z 29003KT 03/M02 A3015 RMK A01 T00271017  RH  073%=      5-min Rain = 0
KWE2 240402Z 29003KT 03/M02 A3015 RMK A01 T00271017  RH  073%=      5-min Rain = 0
KWE2 240403Z 29003KT 03/M02 A3015 RMK A01 T00271017  RH  073%=      5-min Rain = 0
KWE2 240404Z 29003KT 03/M02 A3015 RMK A01 T00271017  RH  073%=      5-min Rain = 0
KWE2 240405Z 29003KT 03/M02 A3015 RMK A01 T00281018  RH  072%=      5-min Rain = 0
KWE2 240406Z 29004KT 03/M02 A3016 RMK A01 T00281019  RH  071%=      5-min Rain = 0
KWE2 240407Z 29004KT 03/M02 A3016 RMK A01 T00291019  RH  071%=      5-min Rain = 0
KWE2 240408Z 29004KT 03/M02 A3016 RMK A01 T00291020  RH  070%=      5-min Rain = 0
KWE2 240409Z 29004KT 03/M02 A3016 RMK A01 T00301020  RH  070%=      5-min Rain = 0
KWE2 240410Z 29004KT 03/M02 A3015 RMK A01 T00311020  RH  069%=      5-min Rain = 0
KWE2 240411Z 30003KT 03/M02 A3015 RMK A01 T00311021  RH  069%=      5-min Rain = 0
KWE2 240412Z 30003KT 03/M02 A3015 RMK A01 T00311019  RH  069%=      5-min Rain = 0
KWE2 240413Z 30003KT 03/M02 A3015 RMK A01 T00311018  RH  070%=      5-min Rain = 0
KWE2 240414Z 30003KT 03/M02 A3015 RMK A01 T00301018  RH  071%=      5-min Rain = 0
KWE2 240415Z 30003KT 03/M02 A3015 RMK A01 T00301017  RH  071%=      5-min Rain = 0
KWE2 240416Z 29002KT 03/M02 A3015 RMK A01 T00301018  RH  071%=      5-min Rain = 0
KWE2 240417Z 29002KT 03/M02 A3015 RMK A01 T00301018  RH  071%=      5-min Rain = 0
KWE2 240418Z 29002KT 03/M02 A3015 RMK A01 T00301018  RH  071%=      5-min Rain = 0
KWE2 240419Z 29002KT 03/M02 A3015 RMK A01 T00291019  RH  071%=      5-min Rain = 0
KWE2 240420Z 29002KT 03/M02 A3016 RMK A01 T00291018  RH  071%=      5-min Rain = 0
KWE2 240421Z 29002KT 03/M02 A3016 RMK A01 T00291018  RH  071%=      5-min Rain = 0
KWE2 240422Z 29002KT 03/M02 A3016 RMK A01 T00291017  RH  072%=      5-min Rain = 0
KWE2 240423Z 29002KT 03/M02 A3016 RMK A01 T00281016  RH  073%=      5-min Rain = 0
KWE2 240424Z 29002KT 03/M02 A3016 RMK A01 T00271017  RH  073%=      5-min Rain = 0
KWE2 240425Z 28002KT 03/M02 A3016 RMK A01 T00271016  RH  073%=      5-min Rain = 0
KWE2 240426Z 28003KT 03/M02 A3016 RMK A01 T00261015  RH  074%=      5-min Rain = 0
KWE2 240427Z 28003KT 03/M02 A3016 RMK A01 T00261017  RH  073%=      5-min Rain = 0
KWE2 240428Z 28003KT 03/M02 A3016 RMK A01 T00251017  RH  073%=      5-min Rain = 0
KWE2 240429Z 28003KT 03/M02 A3016 RMK A01 T00261016  RH  074%=      5-min Rain = 0
KWE2 240430Z 27003KT 03/M02 A3016 RMK A01 T00261015  RH  074%=      5-min Rain = 0
KWE2 240431Z 27003KT 03/M02 A3016 RMK A01 T00251016  RH  074%=      5-min Rain = 0
KWE2 240432Z 27003KT 03/M02 A3016 RMK A01 T00251015  RH  075%=      5-min Rain = 0
KWE2 240433Z 26003KT 02/M02 A3016 RMK A01 T00241017  RH  075%=      5-min Rain = 0
KWE2 240434Z 26003KT 02/M02 A3016 RMK A01 T00221018  RH  075%=      5-min Rain = 0
KWE2 240435Z 26003KT 02/M02 A3016 RMK A01 T00211018  RH  075%=      5-min Rain = 0
KWE2 240436Z 26003KT 02/M02 A3016 RMK A01 T00201019  RH  076%=      5-min Rain = 0
KWE2 240437Z 25003KT 02/M02 A3016 RMK A01 T00191018  RH  076%=      5-min Rain = 0
KWE2 240438Z 25003KT 02/M02 A3016 RMK A01 T00191018  RH  076%=      5-min Rain = 0
KWE2 240439Z 25004KT 02/M02 A3016 RMK A01 T00191018  RH  076%=      5-min Rain = 0
KWE2 240440Z 26004KT 02/M02 A3016 RMK A01 T00191019  RH  076%=      5-min Rain = 0
KWE2 240441Z 26004KT 02/M02 A3016 RMK A01 T00191019  RH  076%=      5-min Rain = 0
KWE2 240442Z 25004KT 02/M02 A3016 RMK A01 T00191019  RH  076%=      5-min Rain = 0
KWE2 240443Z 25004KT 02/M02 A3016 RMK A01 T00191019  RH  076%=      5-min Rain = 0
KWE2 240444Z 25004KT 02/M02 A3016 RMK A01 T00191019  RH  076%=      5-min Rain = 0
KWE2 240445Z 25005KT 02/M02 A3016 RMK A01 T00191019  RH  076%=      5-min Rain = 0
KWE2 240446Z 25005KT 02/M02 A3016 RMK A01 T00191019  RH  076%=      5-min Rain = 0
KWE2 240447Z 26005KT 02/M02 A3016 RMK A01 T00191018  RH  076%=      5-min Rain = 0
KWE2 240448Z 25005KT 02/M02 A3016 RMK A01 T00191018  RH  076%=      5-min Rain = 0
KWE2 240449Z 25005KT 02/M02 A3016 RMK A01 T00181019  RH  077%=      5-min Rain = 0
KWE2 240450Z 26005KT 02/M02 A3016 RMK A01 T00171018  RH  077%=      5-min Rain = 0
KWE2 240451Z 25004KT 02/M02 A3016 RMK A01 T00171018  RH  078%=      5-min Rain = 0
KWE2 240452Z 25004KT 02/M02 A3016 RMK A01 T00161018  RH  078%=      5-min Rain = 0
KWE2 240453Z 25004KT 02/M02 A3016 RMK A01 T00161019  RH  078%=      5-min Rain = 0
KWE2 240454Z 24004KT 02/M02 A3016 RMK A01 T00161018  RH  078%=      5-min Rain = 0
KWE2 240455Z 24004KT 02/M02 A3017 RMK A01 T00161019  RH  078%=      5-min Rain = 0
KWE2 240456Z 24004KT 02/M02 A3017 RMK A01 T00161019  RH  077%=      5-min Rain = 0
KWE2 240457Z 24004KT 02/M02 A3017 RMK A01 T00171019  RH  077%=      5-min Rain = 0
KWE2 240458Z 24004KT 02/M02 A3017 RMK A01 T00181019  RH  076%=      5-min Rain = 0
KWE2 240459Z 24004KT 02/M02 A3017 RMK A01 T00181020  RH  076%=      5-min Rain = 0
KWE2 240500Z 24005KT 02/M02 A3017 RMK A01 T00191020  RH  076%=      5-min Rain = 0
KWE2 240501Z 24005KT 02/M02 A3017 RMK A01 T00191020  RH  076%=      5-min Rain = 0
KWE2 240502Z 25005KT 02/M02 A3017 RMK A01 T00191020  RH  076%=      5-min Rain = 0
KWE2 240503Z 25005KT 02/M02 A3017 RMK A01 T00191020  RH  076%=      5-min Rain = 0
KWE2 240504Z 25005KT 02/M02 A3017 RMK A01 T00191020  RH  076%=      5-min Rain = 0
KWE2 240505Z 25005KT 02/M02 A3017 RMK A01 T00181020  RH  076%=      5-min Rain = 0
KWE2 240506Z 26004KT 02/M02 A3017 RMK A01 T00181020  RH  076%=      5-min Rain = 0
KWE2 240507Z 26003KT 02/M02 A3017 RMK A01 T00171020  RH  077%=      5-min Rain = 0
KWE2 240508Z 27002KT 02/M02 A3016 RMK A01 T00161020  RH  077%=      5-min Rain = 0
KWE2 240509Z 26003KT 02/M02 A3016 RMK A01 T00161020  RH  077%=      5-min Rain = 0
KWE2 240510Z 26003KT 02/M02 A3017 RMK A01 T00161020  RH  077%=      5-min Rain = 0
KWE2 240511Z 26004KT 02/M02 A3017 RMK A01 T00161019  RH  078%=      5-min Rain = 0
KWE2 240512Z 26003KT 02/M02 A3017 RMK A01 T00161019  RH  078%=      5-min Rain = 0
KWE2 240513Z 26003KT 02/M02 A3017 RMK A01 T00161020  RH  077%=      5-min Rain = 0
KWE2 240514Z 26003KT 02/M02 A3017 RMK A01 T00151021  RH  077%=      5-min Rain = 0
KWE2 240515Z 26004KT 02/M02 A3017 RMK A01 T00161020  RH  077%=      5-min Rain = 0
KWE2 240516Z 26004KT 02/M02 A3017 RMK A01 T00161021  RH  077%=      5-min Rain = 0
KWE2 240517Z 26005KT 02/M02 A3017 RMK A01 T00161021  RH  077%=      5-min Rain = 0
KWE2 240518Z 26005KT 02/M02 A3017 RMK A01 T00161020  RH  077%=      5-min Rain = 0
KWE2 240519Z 26005KT 02/M02 A3017 RMK A01 T00171019  RH  077%=      5-min Rain = 0
KWE2 240520Z 25005KT 02/M02 A3017 RMK A01 T00161019  RH  078%=      5-min Rain = 0
KWE2 240521Z 25006KT 02/M02 A3017 RMK A01 T00151019  RH  078%=      5-min Rain = 0
KWE2 240522Z 25006KT 01/M02 A3017 RMK A01 T00141020  RH  078%=      5-min Rain = 0
KWE2 240523Z 25006KT 01/M02 A3017 RMK A01 T00121021  RH  078%=      5-min Rain = 0
KWE2 240524Z 26006KT 01/M02 A3017 RMK A01 T00111021  RH  079%=      5-min Rain = 0
KWE2 240525Z 26006KT 01/M02 A3017 RMK A01 T00111021  RH  079%=      5-min Rain = 0
KWE2 240526Z 25006KT 01/M02 A3017 RMK A01 T00111021  RH  079%=      5-min Rain = 0
KWE2 240527Z 25006KT 01/M02 A3017 RMK A01 T00111021  RH  079%=      5-min Rain = 0
KWE2 240528Z 25006KT 01/M02 A3017 RMK A01 T00111021  RH  079%=      5-min Rain = 0
KWE2 240529Z 26005KT 01/M02 A3016 RMK A01 T00121021  RH  079%=      5-min Rain = 0
KWE2 240530Z 26005KT 01/M02 A3016 RMK A01 T00121021  RH  079%=      5-min Rain = 0
KWE2 240531Z 26004KT 01/M02 A3016 RMK A01 T00121021  RH  078%=      5-min Rain = 0
KWE2 240532Z 27003KT 01/M02 A3016 RMK A01 T00131021  RH  078%=      5-min Rain = 0
KWE2 240533Z 27003KT 01/M02 A3016 RMK A01 T00141021  RH  078%=      5-min Rain = 0
KWE2 240534Z 27003KT 01/M02 A3016 RMK A01 T00141021  RH  077%=      5-min Rain = 0
KWE2 240535Z 27003KT 02/M02 A3016 RMK A01 T00151021  RH  077%=      5-min Rain = 0
KWE2 240536Z 27003KT 02/M02 A3016 RMK A01 T00151020  RH  077%=      5-min Rain = 0
KWE2 240537Z 27003KT 01/M02 A3016 RMK A01 T00141020  RH  078%=      5-min Rain = 0
KWE2 240538Z 27003KT 01/M02 A3016 RMK A01 T00131019  RH  079%=      5-min Rain = 0
KWE2 240539Z 27003KT 01/M02 A3016 RMK A01 T00121019  RH  079%=      5-min Rain = 0
KWE2 240540Z 26003KT 01/M02 A3016 RMK A01 T00121020  RH  079%=      5-min Rain = 0
KWE2 240541Z 26004KT 01/M02 A3016 RMK A01 T00131020  RH  079%=      5-min Rain = 0
KWE2 240542Z 26004KT 01/M02 A3016 RMK A01 T00131021  RH  078%=      5-min Rain = 0
KWE2 240543Z 26004KT 01/M02 A3016 RMK A01 T00131021  RH  078%=      5-min Rain = 0
KWE2 240544Z 26004KT 01/M02 A3016 RMK A01 T00141021  RH  078%=      5-min Rain = 0
KWE2 240545Z 26003KT 01/M02 A3016 RMK A01 T00141021  RH  077%=      5-min Rain = 0
KWE2 240546Z 26003KT 02/M02 A3015 RMK A01 T00151021  RH  077%=      5-min Rain = 0
KWE2 240547Z 26003KT 02/M02 A3015 RMK A01 T00151021  RH  077%=      5-min Rain = 0
KWE2 240548Z 26003KT 02/M02 A3015 RMK A01 T00151021  RH  077%=      5-min Rain = 0
KWE2 240549Z 26003KT 02/M02 A3015 RMK A01 T00151021  RH  077%=      5-min Rain = 0
KWE2 240550Z 26003KT 02/M02 A3015 RMK A01 T00151021  RH  077%=      5-min Rain = 0
KWE2 240551Z 26003KT 02/M02 A3015 RMK A01 T00151021  RH  077%=      5-min Rain = 0
KWE2 240552Z 26003KT 02/M02 A3015 RMK A01 T00161021  RH  077%=      5-min Rain = 0
KWE2 240553Z 26003KT 02/M02 A3015 RMK A01 T00151022  RH  076%=      5-min Rain = 0
KWE2 240554Z 27003KT 02/M02 A3015 RMK A01 T00161022  RH  076%=      5-min Rain = 0
KWE2 240555Z 27003KT 02/M02 A3015 RMK A01 T00161022  RH  076%=      5-min Rain = 0
KWE2 240556Z 27003KT 02/M02 A3015 RMK A01 T00161021  RH  076%=      5-min Rain = 0
KWE2 240557Z 27003KT 02/M02 A3015 RMK A01 T00161021  RH  077%=      5-min Rain = 0
KWE2 240558Z 27003KT 02/M02 A3015 RMK A01 T00161021  RH  076%=      5-min Rain = 0
KWE2 240559Z 26003KT 02/M02 A3015 RMK A01 T00161021  RH  076%=      5-min Rain = 0

Page generated in 0.1311 seconds.